| time (UTC) | temp F | wind direction | speed MPH | gust MPH | rain 1hr in | rain 24hr in | rain mn in | humidity % | barometer mb |
| 20260903050159 | 70 | 134 | 1.0 | 6.0 | 0.01 | 0.46 | 0.01 | 98 | 1016.1 |
| 20260903050100 | 70 | 84 | 4.0 | 6.0 | 0.01 | 0.46 | 0.01 | 98 | 1016.1 |
| 20260903050002 | 70 | 69 | 2.0 | 6.0 | 0.01 | 0.46 | 0.01 | 98 | 1016.0 |
| 20260903045757 | 70 | 49 | 2.0 | 5.0 | 0.01 | 0.46 | 0.01 | 98 | 1016.0 |
| 20260903045558 | 70 | 76 | 2.0 | 4.0 | 0.00 | 0.45 | 0.00 | 98 | 1016.0 |
| 20260903045500 | 70 | 56 | 1.0 | 4.0 | 0.00 | 0.45 | 0.00 | 98 | 1016.0 |
| 20260903045357 | 70 | 56 | 0.0 | 5.0 | 0.00 | 0.45 | 0.00 | 98 | 1016.0 |
| 20260903045258 | 70 | 86 | 1.0 | 5.0 | 0.00 | 0.45 | 0.00 | 98 | 1016.1 |
| 20260903044859 | 70 | 86 | 2.0 | 5.0 | 0.00 | 0.45 | 0.00 | 97 | 1016.3 |
| 20260903044758 | 70 | 84 | 4.0 | 5.0 | 0.00 | 0.45 | 0.00 | 97 | 1016.4 |
| 20260903044659 | 70 | 109 | 2.0 | 5.0 | 0.00 | 0.45 | 0.00 | 97 | 1016.4 |
| 20260903044459 | 71 | 180 | 3.0 | 5.0 | 0.00 | 0.45 | 0.00 | 97 | 1016.4 |
| 20260903044359 | 71 | 188 | 2.0 | 4.0 | 0.00 | 0.45 | 0.00 | 97 | 1016.5 |
| 20260903044258 | 71 | 191 | 3.0 | 6.0 | 0.00 | 0.45 | 0.00 | 97 | 1016.5 |
| 20260903044159 | 71 | 153 | 3.0 | 6.0 | 0.00 | 0.45 | 0.00 | 97 | 1016.5 |
| 20260903044058 | 71 | 150 | 2.0 | 6.0 | 0.00 | 0.45 | 0.00 | 97 | 1016.6 |
| 20260903044000 | 71 | 144 | 0.0 | 10.0 | 0.00 | 0.45 | 0.00 | 97 | 1016.5 |
| 20260903043859 | 71 | 144 | 2.0 | 10.0 | 0.00 | 0.45 | 0.00 | 96 | 1016.5 |
| 20260903043757 | 71 | 143 | 2.0 | 10.0 | 0.00 | 0.45 | 0.00 | 96 | 1016.5 |
| 20260903043559 | 71 | 61 | 1.0 | 10.0 | 0.00 | 0.45 | 0.00 | 96 | 1016.6 |
| 20260903043459 | 71 | 59 | 1.0 | 10.0 | 0.00 | 0.45 | 0.00 | 96 | 1016.5 |
| 20260903043358 | 71 | 107 | 1.0 | 10.0 | 0.00 | 0.45 | 0.00 | 96 | 1016.6 |
| 20260903043200 | 72 | 349 | 1.0 | 10.0 | 0.00 | 0.45 | 0.00 | 96 | 1016.6 |
| 20260903043057 | 72 | 55 | 5.0 | 10.0 | 0.00 | 0.45 | 0.00 | 96 | 1016.6 |
| 20260903043000 | 72 | 79 | 1.0 | 9.0 | 0.00 | 0.45 | 0.00 | 95 | 1016.6 |
| 20260903042758 | 72 | 57 | 2.0 | 15.0 | 0.00 | 0.45 | 0.00 | 96 | 1016.7 |
| 20260903042659 | 72 | 66 | 3.0 | 15.0 | 0.00 | 0.45 | 0.00 | 96 | 1016.8 |
| 20260903042458 | 72 | 22 | 2.0 | 15.0 | 0.00 | 0.45 | 0.00 | 96 | 1017.2 |
| 20260903042358 | 72 | 48 | 2.0 | 15.0 | 0.00 | 0.45 | 0.00 | 96 | 1017.4 |
| 20260903042258 | 72 | 39 | 9.0 | 15.0 | 0.00 | 0.45 | 0.00 | 96 | 1017.5 |
| 20260903042158 | 73 | 26 | 6.0 | 15.0 | 0.00 | 0.45 | 0.00 | 96 | 1017.5 |
| 20260903042058 | 73 | 9 | 5.0 | 15.0 | 0.00 | 0.45 | 0.00 | 96 | 1017.5 |
| 20260903041959 | 73 | 27 | 5.0 | 15.0 | 0.00 | 0.45 | 0.00 | 96 | 1017.4 |
| 20260903041858 | 73 | 67 | 12.0 | 14.0 | 0.00 | 0.45 | 0.00 | 96 | 1017.4 |
| 20260903041757 | 73 | 73 | 5.0 | 14.0 | 0.00 | 0.45 | 0.00 | 97 | 1017.4 |
| 20260903041658 | 73 | 26 | 3.0 | 14.0 | 0.00 | 0.45 | 0.00 | 97 | 1017.4 |
| 20260903041558 | 72 | 49 | 6.0 | 14.0 | 0.00 | 0.45 | 0.00 | 98 | 1017.5 |
| 20260903041358 | 72 | 9 | 8.0 | 14.0 | 0.00 | 0.45 | 0.00 | 98 | 1017.3 |
| 20260903041259 | 72 | 306 | 4.0 | 14.0 | 0.00 | 0.45 | 0.00 | 97 | 1017.2 |
| 20260903041158 | 72 | 344 | 5.0 | 14.0 | 0.00 | 0.45 | 0.00 | 97 | 1017.1 |
| 20260903041058 | 72 | 5 | 11.0 | 14.0 | 0.00 | 0.45 | 0.00 | 97 | 1017.0 |
| 20260903040959 | 72 | 11 | 9.0 | 14.0 | 0.00 | 0.45 | 0.00 | 97 | 1017.1 |
| 20260903040858 | 72 | 12 | 7.0 | 13.0 | 0.00 | 0.45 | 0.00 | 97 | 1017.1 |
| 20260903040758 | 72 | 5 | 4.0 | 13.0 | 0.00 | 0.45 | 0.00 | 97 | 1017.1 |
| 20260903040559 | 72 | 32 | 4.0 | 10.0 | 0.00 | 0.45 | 0.00 | 97 | 1016.9 |
| 20260903040500 | 72 | 11 | 4.0 | 10.0 | 0.00 | 0.45 | 0.00 | 97 | 1016.7 |
| 20260903040358 | 72 | 22 | 8.0 | 8.0 | 0.00 | 0.45 | 0.00 | 96 | 1016.3 |
| 20260903040259 | 72 | 65 | 0.0 | 0.0 | 0.00 | 0.45 | 0.00 | 96 | 1016.0 |
| 20260903040200 | 72 | 65 | 0.0 | 0.0 | 0.00 | 0.45 | 0.00 | 96 | 1015.8 |
| 20260903035900 | 72 | 65 | 0.0 | 1.0 | 0.00 | 0.58 | 0.45 | 96 | 1015.6 |
| 20260903035800 | 72 | 65 | 0.0 | 1.0 | 0.00 | 0.58 | 0.45 | 96 | 1015.6 |
| 20260903035703 | 72 | 65 | 0.0 | 2.0 | 0.00 | 0.58 | 0.45 | 96 | 1015.6 |
| 20260903035502 | 72 | 65 | 0.0 | 2.0 | 0.00 | 0.58 | 0.45 | 96 | 1015.7 |
| 20260903035401 | 72 | 65 | 0.0 | 2.0 | 0.00 | 0.58 | 0.45 | 96 | 1015.6 |
| 20260903035259 | 72 | 65 | 0.0 | 2.0 | 0.00 | 0.58 | 0.45 | 96 | 1015.7 |
| 20260903035200 | 72 | 65 | 0.0 | 2.0 | 0.00 | 0.58 | 0.45 | 96 | 1015.6 |
| 20260903035100 | 72 | 65 | 0.0 | 2.0 | 0.00 | 0.58 | 0.45 | 96 | 1015.6 |
| 20260903035003 | 72 | 65 | 0.0 | 2.0 | 0.00 | 0.58 | 0.45 | 96 | 1015.6 |
| 20260903034900 | 72 | 65 | 1.0 | 2.0 | 0.00 | 0.58 | 0.45 | 96 | 1015.5 |
| 20260903034801 | 72 | 65 | 0.0 | 2.0 | 0.00 | 0.58 | 0.45 | 96 | 1015.5 |
| 20260903034600 | 72 | 65 | 0.0 | 4.0 | 0.00 | 0.58 | 0.45 | 96 | 1015.5 |
| 20260903034503 | 72 | 65 | 0.0 | 4.0 | 0.00 | 0.58 | 0.45 | 96 | 1015.6 |
| 20260903034300 | 72 | 65 | 0.0 | 4.0 | 0.00 | 0.58 | 0.45 | 96 | 1015.7 |
| 20260903034100 | 72 | 65 | 1.0 | 4.0 | 0.00 | 0.58 | 0.45 | 96 | 1015.6 |
| 20260903034003 | 72 | 65 | 0.0 | 4.0 | 0.00 | 0.58 | 0.45 | 96 | 1015.7 |
| 20260903033900 | 72 | 65 | 0.0 | 4.0 | 0.00 | 0.58 | 0.45 | 96 | 1015.7 |
| 20260903033800 | 72 | 65 | 1.0 | 4.0 | 0.00 | 0.58 | 0.45 | 96 | 1015.8 |
| 20260903033600 | 72 | 82 | 2.0 | 2.0 | 0.00 | 0.58 | 0.45 | 96 | 1015.7 |
| 20260903033503 | 72 | 82 | 1.0 | 2.0 | 0.00 | 0.58 | 0.45 | 96 | 1015.6 |
| 20260903033400 | 72 | 82 | 1.0 | 2.0 | 0.00 | 0.58 | 0.45 | 96 | 1015.6 |
| 20260903033301 | 72 | 82 | 1.0 | 2.0 | 0.00 | 0.58 | 0.45 | 96 | 1015.6 |
| 20260903033202 | 72 | 82 | 1.0 | 2.0 | 0.00 | 0.58 | 0.45 | 96 | 1015.6 |
| 20260903033101 | 72 | 82 | 1.0 | 2.0 | 0.00 | 0.58 | 0.45 | 96 | 1015.7 |
| 20260903033004 | 72 | 82 | 0.0 | 2.0 | 0.00 | 0.58 | 0.45 | 96 | 1015.8 |
| 20260903032801 | 72 | 82 | 1.0 | 2.0 | 0.00 | 0.58 | 0.45 | 96 | 1015.9 |
| 20260903032600 | 72 | 82 | 0.0 | 2.0 | 0.00 | 0.58 | 0.45 | 96 | 1016.0 |
| 20260903032503 | 72 | 82 | 1.0 | 2.0 | 0.00 | 0.58 | 0.45 | 96 | 1016.0 |
| 20260903032201 | 72 | 82 | 1.0 | 2.0 | 0.00 | 0.58 | 0.45 | 96 | 1016.0 |
| 20260903032100 | 72 | 82 | 1.0 | 3.0 | 0.00 | 0.58 | 0.45 | 96 | 1016.0 |
| 20260903032003 | 72 | 82 | 1.0 | 3.0 | 0.00 | 0.58 | 0.45 | 96 | 1016.0 |
| 20260903031900 | 72 | 82 | 1.0 | 3.0 | 0.00 | 0.58 | 0.45 | 96 | 1016.1 |
| 20260903031801 | 72 | 82 | 0.0 | 3.0 | 0.00 | 0.58 | 0.45 | 96 | 1016.3 |
| 20260903031700 | 72 | 82 | 1.0 | 3.0 | 0.00 | 0.58 | 0.45 | 96 | 1016.3 |
| 20260903031504 | 72 | 92 | 0.0 | 3.0 | 0.00 | 0.58 | 0.45 | 96 | 1016.4 |
| 20260903031401 | 72 | 92 | 1.0 | 3.0 | 0.00 | 0.58 | 0.45 | 96 | 1016.3 |
| 20260903031300 | 72 | 92 | 0.0 | 3.0 | 0.00 | 0.58 | 0.45 | 96 | 1016.2 |
| 20260903031200 | 72 | 92 | 1.0 | 3.0 | 0.00 | 0.58 | 0.45 | 97 | 1016.2 |
| 20260903031004 | 72 | 90 | 0.0 | 2.0 | 0.00 | 0.58 | 0.45 | 97 | 1016.0 |
| 20260903030901 | 72 | 90 | 0.0 | 2.0 | 0.00 | 0.58 | 0.45 | 97 | 1016.0 |
| 20260903030800 | 72 | 90 | 0.0 | 2.0 | 0.00 | 0.58 | 0.45 | 97 | 1016.0 |
| 20260903030601 | 72 | 90 | 0.0 | 2.0 | 0.00 | 0.58 | 0.45 | 97 | 1016.0 |
| 20260903030503 | 72 | 88 | 0.0 | 0.0 | 0.00 | 0.58 | 0.45 | 97 | 1016.0 |
| 20260903030359 | 72 | 88 | 0.0 | 0.0 | 0.00 | 0.58 | 0.45 | 97 | 1016.0 |
| 20260903030300 | 72 | 88 | 0.0 | 0.0 | 0.00 | 0.58 | 0.45 | 97 | 1016.1 |
| 20260903030201 | 72 | 88 | 0.0 | 0.0 | 0.00 | 0.58 | 0.45 | 97 | 1016.1 |
| 20260903030101 | 72 | 88 | 0.0 | 0.0 | 0.00 | 0.58 | 0.45 | 97 | 1016.2 |
| 20260903025859 | 72 | 88 | 0.0 | 0.0 | 0.00 | 0.69 | 0.45 | 97 | 1016.2 |
| 20260903025800 | 72 | 88 | 0.0 | 2.0 | 0.00 | 0.69 | 0.45 | 97 | 1016.2 |
| 20260903025700 | 72 | 88 | 0.0 | 2.0 | 0.00 | 0.69 | 0.45 | 97 | 1016.2 |
| 20260903025600 | 72 | 88 | 0.0 | 2.0 | 0.00 | 0.69 | 0.45 | 97 | 1016.2 |
| 20260903025502 | 72 | 88 | 0.0 | 2.0 | 0.00 | 0.69 | 0.45 | 97 | 1016.1 |
| 20260903025400 | 72 | 88 | 0.0 | 2.0 | 0.00 | 0.69 | 0.45 | 97 | 1016.2 |
| 20260903025259 | 72 | 88 | 0.0 | 2.0 | 0.00 | 0.69 | 0.45 | 97 | 1016.2 |
| 20260903025159 | 72 | 88 | 0.0 | 2.0 | 0.00 | 0.69 | 0.45 | 97 | 1016.2 |
| 20260903025059 | 72 | 88 | 0.0 | 2.0 | 0.00 | 0.69 | 0.45 | 97 | 1016.2 |
| 20260903024900 | 72 | 88 | 1.0 | 2.0 | 0.00 | 0.69 | 0.45 | 97 | 1016.4 |
| 20260903024759 | 72 | 88 | 0.0 | 2.0 | 0.00 | 0.69 | 0.45 | 97 | 1016.4 |
| 20260903024700 | 72 | 88 | 0.0 | 2.0 | 0.00 | 0.69 | 0.45 | 97 | 1016.4 |
| 20260903024358 | 72 | 88 | 1.0 | 2.0 | 0.00 | 0.69 | 0.45 | 97 | 1016.3 |
| 20260903024159 | 72 | 88 | 1.0 | 2.0 | 0.00 | 0.69 | 0.45 | 97 | 1016.3 |
| 20260903024059 | 72 | 88 | 0.0 | 2.0 | 0.00 | 0.69 | 0.45 | 97 | 1016.2 |
| 20260903024003 | 72 | 88 | 0.0 | 2.0 | 0.00 | 0.69 | 0.45 | 97 | 1016.2 |
| 20260903023659 | 72 | 88 | 0.0 | 2.0 | 0.00 | 0.69 | 0.45 | 97 | 1016.1 |
| 20260903023559 | 72 | 88 | 1.0 | 2.0 | 0.00 | 0.69 | 0.45 | 97 | 1016.1 |
| 20260903023400 | 72 | 121 | 0.0 | 3.0 | 0.00 | 0.69 | 0.45 | 97 | 1016.1 |
| 20260903023259 | 72 | 121 | 0.0 | 3.0 | 0.00 | 0.69 | 0.45 | 97 | 1016.0 |
| 20260903023159 | 72 | 121 | 0.0 | 3.0 | 0.00 | 0.69 | 0.45 | 97 | 1015.9 |
| 20260903023100 | 72 | 121 | 1.0 | 3.0 | 0.00 | 0.69 | 0.45 | 97 | 1015.9 |
| 20260903023003 | 72 | 121 | 0.0 | 3.0 | 0.00 | 0.69 | 0.45 | 97 | 1015.9 |
| 20260903022859 | 72 | 121 | 0.0 | 3.0 | 0.00 | 0.69 | 0.45 | 97 | 1015.9 |
| 20260903022759 | 72 | 121 | 1.0 | 3.0 | 0.00 | 0.69 | 0.45 | 97 | 1015.9 |
| 20260903022658 | 72 | 121 | 1.0 | 3.0 | 0.00 | 0.69 | 0.45 | 97 | 1015.9 |
| 20260903022359 | 72 | 103 | 0.0 | 3.0 | 0.00 | 0.69 | 0.45 | 97 | 1016.0 |
| 20260903022259 | 72 | 103 | 0.0 | 3.0 | 0.00 | 0.69 | 0.45 | 97 | 1015.9 |
| 20260903022100 | 72 | 103 | 0.0 | 3.0 | 0.00 | 0.69 | 0.45 | 97 | 1015.9 |
| 20260903022002 | 72 | 103 | 1.0 | 3.0 | 0.00 | 0.69 | 0.45 | 97 | 1016.0 |
| 20260903021859 | 72 | 103 | 0.0 | 3.0 | 0.00 | 0.69 | 0.45 | 97 | 1016.0 |
| 20260903021759 | 72 | 103 | 1.0 | 3.0 | 0.00 | 0.69 | 0.45 | 97 | 1016.0 |
| 20260903021659 | 72 | 122 | 0.0 | 0.0 | 0.00 | 0.69 | 0.45 | 97 | 1016.0 |
| 20260903021600 | 72 | 122 | 0.0 | 0.0 | 0.00 | 0.69 | 0.45 | 97 | 1016.0 |
| 20260903021503 | 72 | 122 | 0.0 | 0.0 | 0.00 | 0.69 | 0.45 | 97 | 1016.0 |
| 20260903021400 | 72 | 122 | 0.0 | 0.0 | 0.00 | 0.69 | 0.45 | 97 | 1015.8 |
| 20260903021259 | 72 | 122 | 0.0 | 0.0 | 0.00 | 0.69 | 0.45 | 97 | 1015.8 |
| 20260903021200 | 72 | 122 | 0.0 | 0.0 | 0.00 | 0.69 | 0.45 | 97 | 1015.7 |
| 20260903020800 | 73 | 122 | 0.0 | 0.0 | 0.00 | 0.69 | 0.45 | 97 | 1015.6 |
| 20260903020700 | 73 | 122 | 0.0 | 0.0 | 0.00 | 0.69 | 0.45 | 97 | 1015.6 |
| 20260903020600 | 73 | 122 | 0.0 | 0.0 | 0.00 | 0.69 | 0.45 | 97 | 1015.6 |
| 20260903020400 | 73 | 122 | 0.0 | 0.0 | 0.00 | 0.69 | 0.45 | 97 | 1015.6 |
| 20260903020259 | 73 | 122 | 0.0 | 0.0 | 0.00 | 0.69 | 0.45 | 97 | 1015.6 |
| 20260903020200 | 73 | 122 | 0.0 | 0.0 | 0.00 | 0.69 | 0.45 | 97 | 1015.6 |
| 20260903020101 | 73 | 122 | 0.0 | 0.0 | 0.00 | 0.69 | 0.45 | 97 | 1015.5 |
| 20260903015901 | 73 | 122 | 0.0 | 0.0 | 0.00 | 0.82 | 0.45 | 97 | 1015.6 |
| 20260903015800 | 73 | 122 | 0.0 | 0.0 | 0.00 | 0.82 | 0.45 | 97 | 1015.6 |
| 20260903015702 | 73 | 122 | 0.0 | 0.0 | 0.00 | 0.82 | 0.45 | 97 | 1015.6 |
| 20260903015600 | 73 | 122 | 0.0 | 0.0 | 0.01 | 0.82 | 0.45 | 97 | 1015.6 |
| 20260903015502 | 73 | 122 | 0.0 | 0.0 | 0.01 | 0.82 | 0.45 | 97 | 1015.5 |
| 20260903015401 | 73 | 122 | 0.0 | 0.0 | 0.01 | 0.82 | 0.45 | 97 | 1015.5 |
| 20260903015200 | 73 | 122 | 0.0 | 1.0 | 0.01 | 0.82 | 0.45 | 97 | 1015.6 |
| 20260903015100 | 73 | 122 | 0.0 | 3.0 | 0.01 | 0.82 | 0.45 | 97 | 1015.6 |
| 20260903015002 | 73 | 122 | 0.0 | 3.0 | 0.01 | 0.82 | 0.45 | 97 | 1015.6 |
| 20260903014902 | 73 | 122 | 0.0 | 3.0 | 0.01 | 0.82 | 0.45 | 97 | 1015.6 |
| 20260903014801 | 73 | 122 | 0.0 | 3.0 | 0.01 | 0.82 | 0.45 | 97 | 1015.6 |
| 20260903014700 | 73 | 122 | 0.0 | 3.0 | 0.01 | 0.82 | 0.45 | 97 | 1015.6 |
| 20260903014601 | 73 | 122 | 0.0 | 3.0 | 0.01 | 0.82 | 0.45 | 97 | 1015.6 |
| 20260903014503 | 73 | 122 | 0.0 | 3.0 | 0.01 | 0.82 | 0.45 | 97 | 1015.5 |
| 20260903014400 | 73 | 122 | 0.0 | 3.0 | 0.01 | 0.82 | 0.45 | 97 | 1015.4 |
| 20260903014301 | 73 | 122 | 0.0 | 3.0 | 0.01 | 0.82 | 0.45 | 97 | 1015.4 |
| 20260903014201 | 73 | 122 | 2.0 | 3.0 | 0.01 | 0.82 | 0.45 | 97 | 1015.5 |
| 20260903014101 | 73 | 132 | 0.0 | 2.0 | 0.01 | 0.82 | 0.45 | 97 | 1015.5 |
| 20260903013700 | 73 | 132 | 1.0 | 2.0 | 0.01 | 0.82 | 0.45 | 97 | 1015.7 |
| 20260903013600 | 73 | 132 | 0.0 | 2.0 | 0.01 | 0.82 | 0.45 | 97 | 1015.7 |
| 20260903013504 | 73 | 132 | 0.0 | 2.0 | 0.01 | 0.82 | 0.45 | 97 | 1015.7 |
| 20260903013302 | 73 | 132 | 0.0 | 2.0 | 0.01 | 0.82 | 0.45 | 97 | 1015.6 |
| 20260903013201 | 73 | 132 | 0.0 | 2.0 | 0.01 | 0.82 | 0.45 | 97 | 1015.7 |
| 20260903013100 | 73 | 132 | 0.0 | 2.0 | 0.01 | 0.82 | 0.45 | 97 | 1015.7 |
| 20260903012800 | 73 | 94 | 0.0 | 2.0 | 0.01 | 0.82 | 0.45 | 97 | 1015.7 |
| 20260903012700 | 73 | 94 | 1.0 | 2.0 | 0.01 | 0.82 | 0.45 | 97 | 1015.7 |
| 20260903012602 | 73 | 94 | 0.0 | 2.0 | 0.01 | 0.82 | 0.45 | 97 | 1015.7 |
| 20260903012503 | 73 | 94 | 0.0 | 0.0 | 0.01 | 0.82 | 0.45 | 97 | 1015.8 |
| 20260903012402 | 73 | 94 | 0.0 | 0.0 | 0.01 | 0.82 | 0.45 | 97 | 1015.9 |
| 20260903012301 | 73 | 94 | 0.0 | 0.0 | 0.01 | 0.82 | 0.45 | 97 | 1015.9 |
| 20260903012203 | 73 | 94 | 0.0 | 0.0 | 0.01 | 0.82 | 0.45 | 97 | 1015.9 |
| 20260903012100 | 73 | 94 | 0.0 | 0.0 | 0.01 | 0.82 | 0.45 | 97 | 1015.9 |
| 20260903011902 | 73 | 94 | 0.0 | 0.0 | 0.01 | 0.82 | 0.45 | 97 | 1015.8 |
| 20260903011800 | 73 | 94 | 0.0 | 0.0 | 0.01 | 0.82 | 0.45 | 97 | 1015.7 |
| 20260903011700 | 73 | 94 | 0.0 | 0.0 | 0.01 | 0.82 | 0.45 | 97 | 1015.7 |
| 20260903011601 | 73 | 94 | 0.0 | 0.0 | 0.01 | 0.82 | 0.45 | 97 | 1015.6 |
| 20260903011503 | 73 | 94 | 0.0 | 0.0 | 0.01 | 0.82 | 0.45 | 97 | 1015.6 |
| 20260903011400 | 73 | 94 | 0.0 | 0.0 | 0.01 | 0.82 | 0.45 | 97 | 1015.6 |
| 20260903011300 | 73 | 94 | 0.0 | 0.0 | 0.01 | 0.82 | 0.45 | 97 | 1015.6 |
| 20260903011201 | 73 | 94 | 0.0 | 0.0 | 0.01 | 0.82 | 0.45 | 97 | 1015.6 |
| 20260903011103 | 73 | 94 | 0.0 | 0.0 | 0.01 | 0.82 | 0.45 | 97 | 1015.8 |
| 20260903011002 | 73 | 94 | 0.0 | 0.0 | 0.01 | 0.82 | 0.45 | 97 | 1015.9 |
| 20260903010900 | 73 | 94 | 0.0 | 0.0 | 0.01 | 0.82 | 0.45 | 97 | 1015.9 |
| 20260903010801 | 73 | 94 | 0.0 | 0.0 | 0.01 | 0.82 | 0.45 | 97 | 1015.9 |
| 20260903010600 | 73 | 94 | 0.0 | 0.0 | 0.01 | 0.82 | 0.45 | 97 | 1016.0 |
| 20260903010401 | 73 | 94 | 0.0 | 0.0 | 0.01 | 0.82 | 0.45 | 97 | 1015.9 |
| 20260903010301 | 73 | 94 | 0.0 | 0.0 | 0.01 | 0.82 | 0.45 | 98 | 1015.9 |
| 20260903010100 | 73 | 94 | 0.0 | 0.0 | 0.01 | 0.82 | 0.45 | 98 | 1015.9 |
| 20260903010003 | 73 | 94 | 0.0 | 0.0 | 0.01 | 0.82 | 0.45 | 98 | 1015.9 |
| 20260903005900 | 73 | 94 | 0.0 | 0.0 | 0.01 | 0.82 | 0.45 | 98 | 1015.9 |
| 20260903005800 | 73 | 94 | 0.0 | 0.0 | 0.01 | 0.82 | 0.45 | 98 | 1015.9 |
| 20260903005659 | 73 | 94 | 0.0 | 0.0 | 0.00 | 0.81 | 0.44 | 98 | 1015.9 |
| 20260903005600 | 73 | 94 | 0.0 | 0.0 | 0.00 | 0.81 | 0.44 | 98 | 1015.9 |
| 20260903005503 | 73 | 94 | 0.0 | 0.0 | 0.00 | 0.81 | 0.44 | 98 | 1015.9 |
| 20260903005400 | 73 | 94 | 0.0 | 0.0 | 0.00 | 0.81 | 0.44 | 98 | 1015.9 |
| 20260903005259 | 73 | 94 | 0.0 | 0.0 | 0.00 | 0.81 | 0.44 | 98 | 1015.9 |
| 20260903005159 | 73 | 94 | 0.0 | 0.0 | 0.00 | 0.81 | 0.44 | 98 | 1015.9 |
| 20260903005100 | 73 | 94 | 0.0 | 0.0 | 0.00 | 0.81 | 0.44 | 98 | 1015.9 |
| 20260903005003 | 73 | 94 | 0.0 | 0.0 | 0.00 | 0.81 | 0.44 | 98 | 1015.9 |
| 20260903004859 | 73 | 94 | 0.0 | 0.0 | 0.00 | 0.81 | 0.44 | 98 | 1016.0 |
| 20260903004659 | 73 | 94 | 0.0 | 0.0 | 0.00 | 0.81 | 0.44 | 98 | 1016.0 |
| 20260903004559 | 73 | 94 | 0.0 | 0.0 | 0.00 | 0.81 | 0.44 | 98 | 1016.0 |
| 20260903004503 | 73 | 94 | 0.0 | 0.0 | 0.00 | 0.81 | 0.44 | 98 | 1016.0 |
| 20260903004359 | 73 | 94 | 0.0 | 0.0 | 0.00 | 0.81 | 0.44 | 98 | 1015.9 |
| 20260903004200 | 73 | 94 | 0.0 | 0.0 | 0.00 | 0.81 | 0.44 | 98 | 1015.9 |
| 20260903004058 | 73 | 94 | 0.0 | 1.0 | 0.00 | 0.81 | 0.44 | 98 | 1015.8 |
| 20260903004003 | 73 | 94 | 0.0 | 1.0 | 0.00 | 0.81 | 0.44 | 98 | 1015.9 |
| 20260903003859 | 73 | 94 | 0.0 | 1.0 | 0.00 | 0.81 | 0.44 | 98 | 1015.9 |
| 20260903003800 | 73 | 94 | 0.0 | 1.0 | 0.00 | 0.81 | 0.44 | 98 | 1015.8 |
| 20260903003658 | 73 | 94 | 0.0 | 1.0 | 0.00 | 0.81 | 0.44 | 98 | 1015.8 |
| 20260903003559 | 73 | 94 | 0.0 | 1.0 | 0.00 | 0.81 | 0.44 | 98 | 1015.8 |
| 20260903003502 | 73 | 94 | 0.0 | 2.0 | 0.01 | 0.81 | 0.44 | 98 | 1015.8 |
| 20260903003259 | 73 | 94 | 0.0 | 2.0 | 0.01 | 0.81 | 0.44 | 98 | 1015.7 |
| 20260903003200 | 73 | 94 | 0.0 | 2.0 | 0.01 | 0.81 | 0.44 | 98 | 1015.7 |
| 20260903003100 | 74 | 94 | 1.0 | 2.0 | 0.01 | 0.81 | 0.44 | 97 | 1015.7 |
| 20260903003002 | 74 | 94 | 1.0 | 2.0 | 0.01 | 0.81 | 0.44 | 97 | 1015.7 |
| 20260903002900 | 74 | 94 | 0.0 | 2.0 | 0.01 | 0.81 | 0.44 | 97 | 1015.7 |
| 20260903002759 | 74 | 94 | 0.0 | 2.0 | 0.01 | 0.81 | 0.44 | 97 | 1015.6 |
| 20260903002701 | 74 | 94 | 0.0 | 2.0 | 0.01 | 0.81 | 0.44 | 97 | 1015.6 |
| 20260903002600 | 74 | 94 | 1.0 | 2.0 | 0.01 | 0.81 | 0.44 | 97 | 1015.5 |
| 20260903002301 | 74 | 94 | 0.0 | 2.0 | 0.01 | 0.81 | 0.44 | 97 | 1015.5 |
| 20260903002102 | 74 | 94 | 0.0 | 2.0 | 0.01 | 0.81 | 0.44 | 97 | 1015.7 |
| 20260903002002 | 74 | 94 | 0.0 | 2.0 | 0.01 | 0.81 | 0.44 | 97 | 1015.8 |
| 20260903001759 | 74 | 94 | 0.0 | 2.0 | 0.01 | 0.81 | 0.44 | 97 | 1015.9 |
| 20260903001658 | 74 | 94 | 0.0 | 1.0 | 0.01 | 0.81 | 0.44 | 97 | 1015.9 |
| 20260903001502 | 74 | 94 | 0.0 | 0.0 | 0.01 | 0.81 | 0.44 | 97 | 1015.9 |
| 20260903001400 | 74 | 94 | 0.0 | 0.0 | 0.01 | 0.81 | 0.44 | 97 | 1015.9 |
| 20260903001300 | 74 | 94 | 0.0 | 0.0 | 0.01 | 0.81 | 0.44 | 97 | 1015.9 |
| 20260903001159 | 74 | 94 | 0.0 | 0.0 | 0.01 | 0.81 | 0.44 | 97 | 1015.9 |
| 20260903001059 | 74 | 94 | 0.0 | 0.0 | 0.01 | 0.81 | 0.44 | 97 | 1015.8 |
| 20260903001003 | 74 | 94 | 0.0 | 0.0 | 0.01 | 0.81 | 0.44 | 97 | 1015.9 |
| 20260903000759 | 74 | 94 | 0.0 | 2.0 | 0.01 | 0.81 | 0.44 | 97 | 1015.8 |
| 20260903000700 | 74 | 94 | 0.0 | 2.0 | 0.01 | 0.81 | 0.44 | 97 | 1015.8 |
| 20260903000359 | 74 | 94 | 0.0 | 2.0 | 0.01 | 0.81 | 0.44 | 97 | 1015.9 |
| 20260903000259 | 74 | 94 | 0.0 | 2.0 | 0.01 | 0.81 | 0.44 | 97 | 1015.9 |
| 20260903000200 | 74 | 94 | 0.0 | 2.0 | 0.01 | 0.81 | 0.44 | 97 | 1015.8 |
| 20260903000059 | 74 | 94 | 0.0 | 2.0 | 0.01 | 0.81 | 0.44 | 97 | 1015.9 |
| 20260903000003 | 74 | 94 | 0.0 | 4.0 | 0.01 | 0.81 | 0.44 | 97 | 1015.8 |
| 20260902235859 | 74 | 94 | 1.0 | 4.0 | 0.01 | 0.81 | 0.44 | 97 | 1015.8 |
| 20260902235759 | 74 | 94 | 0.0 | 4.0 | 0.01 | 0.81 | 0.44 | 97 | 1015.8 |
| 20260902235559 | 74 | 94 | 0.0 | 4.0 | 0.01 | 0.81 | 0.44 | 97 | 1015.8 |
| 20260902235502 | 74 | 94 | 0.0 | 4.0 | 0.01 | 0.81 | 0.44 | 97 | 1015.8 |
| 20260902235400 | 74 | 94 | 0.0 | 4.0 | 0.01 | 0.81 | 0.44 | 97 | 1015.8 |
| 20260902235259 | 74 | 94 | 0.0 | 4.0 | 0.01 | 0.81 | 0.44 | 97 | 1015.8 |
| 20260902235200 | 74 | 94 | 0.0 | 4.0 | 0.01 | 0.81 | 0.44 | 97 | 1015.8 |
| 20260902235100 | 74 | 94 | 4.0 | 4.0 | 0.01 | 0.81 | 0.44 | 97 | 1015.8 |
| 20260902235004 | 74 | 106 | 0.0 | 3.0 | 0.01 | 0.81 | 0.44 | 97 | 1015.8 |
| 20260902234900 | 74 | 106 | 0.0 | 3.0 | 0.01 | 0.81 | 0.44 | 97 | 1015.8 |
| 20260902234800 | 74 | 106 | 0.0 | 3.0 | 0.01 | 0.81 | 0.44 | 97 | 1015.7 |
| 20260902234659 | 74 | 106 | 0.0 | 3.0 | 0.01 | 0.81 | 0.44 | 97 | 1015.7 |
| 20260902234559 | 74 | 106 | 0.0 | 3.0 | 0.01 | 0.81 | 0.44 | 97 | 1015.8 |
| 20260902234501 | 74 | 106 | 0.0 | 5.0 | 0.01 | 0.81 | 0.44 | 97 | 1015.8 |
| 20260902234359 | 74 | 107 | 1.0 | 5.0 | 0.01 | 0.81 | 0.44 | 97 | 1015.8 |
| 20260902234259 | 74 | 107 | 0.0 | 5.0 | 0.01 | 0.81 | 0.44 | 97 | 1015.9 |
| 20260902234100 | 74 | 171 | 0.0 | 5.0 | 0.01 | 0.81 | 0.44 | 97 | 1015.8 |
| 20260902234002 | 74 | 171 | 0.0 | 5.0 | 0.01 | 0.81 | 0.44 | 97 | 1015.9 |
| 20260902233859 | 74 | 171 | 1.0 | 5.0 | 0.01 | 0.81 | 0.44 | 97 | 1015.9 |
| 20260902233659 | 74 | 172 | 1.0 | 5.0 | 0.01 | 0.81 | 0.44 | 97 | 1015.8 |
| 20260902233558 | 74 | 172 | 3.0 | 5.0 | 0.01 | 0.81 | 0.44 | 97 | 1015.8 |
| 20260902233502 | 74 | 173 | 0.0 | 3.0 | 0.00 | 0.80 | 0.43 | 97 | 1015.7 |
| 20260902233359 | 74 | 173 | 0.0 | 3.0 | 0.00 | 0.80 | 0.43 | 97 | 1015.7 |
| 20260902233259 | 74 | 173 | 0.0 | 3.0 | 0.00 | 0.80 | 0.43 | 97 | 1015.7 |
| 20260902233159 | 74 | 173 | 0.0 | 3.0 | 0.00 | 0.80 | 0.43 | 97 | 1015.7 |
| 20260902233059 | 74 | 173 | 3.0 | 3.0 | 0.00 | 0.80 | 0.43 | 97 | 1015.8 |
| 20260902233001 | 74 | 173 | 0.0 | 0.0 | 0.00 | 0.80 | 0.43 | 97 | 1015.8 |
| 20260902232859 | 74 | 173 | 0.0 | 0.0 | 0.00 | 0.80 | 0.43 | 97 | 1015.8 |
| 20260902232800 | 74 | 173 | 0.0 | 0.0 | 0.00 | 0.80 | 0.43 | 97 | 1015.8 |
| 20260902232701 | 74 | 172 | 0.0 | 0.0 | 0.00 | 0.80 | 0.43 | 97 | 1015.8 |
| 20260902232502 | 74 | 172 | 0.0 | 0.0 | 0.00 | 0.80 | 0.43 | 97 | 1015.7 |
| 20260902232300 | 74 | 172 | 0.0 | 0.0 | 0.00 | 0.80 | 0.43 | 97 | 1015.7 |
| 20260902232003 | 74 | 172 | 0.0 | 0.0 | 0.00 | 0.80 | 0.43 | 97 | 1015.7 |
| 20260902231900 | 74 | 172 | 0.0 | 0.0 | 0.00 | 0.80 | 0.43 | 97 | 1015.7 |
| 20260902231758 | 74 | 172 | 0.0 | 0.0 | 0.00 | 0.80 | 0.43 | 97 | 1015.7 |
| 20260902231659 | 74 | 173 | 0.0 | 0.0 | 0.00 | 0.80 | 0.43 | 97 | 1015.6 |
| 20260902231600 | 74 | 172 | 0.0 | 0.0 | 0.00 | 0.80 | 0.43 | 97 | 1015.7 |
| 20260902231502 | 74 | 173 | 0.0 | 0.0 | 0.00 | 0.80 | 0.43 | 97 | 1015.7 |
| 20260902231359 | 74 | 173 | 0.0 | 0.0 | 0.00 | 0.80 | 0.43 | 97 | 1015.6 |
| 20260902231259 | 75 | 173 | 0.0 | 0.0 | 0.00 | 0.80 | 0.43 | 97 | 1015.7 |
| 20260902231058 | 75 | 173 | 0.0 | 0.0 | 0.00 | 0.80 | 0.43 | 97 | 1015.6 |
| 20260902231000 | 75 | 142 | 0.0 | 0.0 | 0.00 | 0.80 | 0.43 | 97 | 1015.6 |
| 20260902230900 | 75 | 142 | 0.0 | 0.0 | 0.00 | 0.80 | 0.43 | 97 | 1015.6 |
| 20260902230759 | 75 | 140 | 0.0 | 0.0 | 0.00 | 0.80 | 0.43 | 97 | 1015.7 |
| 20260902230700 | 75 | 140 | 0.0 | 0.0 | 0.00 | 0.80 | 0.43 | 97 | 1015.7 |
| 20260902230559 | 75 | 140 | 0.0 | 0.0 | 0.00 | 0.80 | 0.43 | 97 | 1015.7 |
| 20260902230500 | 75 | 140 | 0.0 | 0.0 | 0.00 | 0.80 | 0.43 | 97 | 1015.7 |
| 20260902230400 | 75 | 140 | 0.0 | 0.0 | 0.00 | 0.80 | 0.43 | 97 | 1015.7 |
| 20260902230300 | 75 | 140 | 0.0 | 0.0 | 0.00 | 0.80 | 0.43 | 97 | 1015.7 |
| 20260902230201 | 75 | 140 | 0.0 | 0.0 | 0.00 | 0.80 | 0.43 | 97 | 1015.7 |
| 20260902230059 | 75 | 140 | 0.0 | 0.0 | 0.00 | 0.80 | 0.43 | 97 | 1015.7 |
| 20260902230004 | 75 | 140 | 0.0 | 0.0 | 0.00 | 0.80 | 0.43 | 96 | 1015.7 |
| 20260902225900 | 75 | 140 | 0.0 | 0.0 | 0.00 | 0.80 | 0.43 | 96 | 1015.7 |
| 20260902225802 | 75 | 140 | 0.0 | 0.0 | 0.00 | 0.80 | 0.43 | 96 | 1015.7 |
| 20260902225600 | 75 | 140 | 0.0 | 0.0 | 0.00 | 0.80 | 0.43 | 96 | 1015.7 |
| 20260902225504 | 75 | 140 | 0.0 | 0.0 | 0.00 | 0.80 | 0.43 | 96 | 1015.7 |
| 20260902225400 | 75 | 140 | 0.0 | 0.0 | 0.00 | 0.80 | 0.43 | 96 | 1015.7 |
| 20260902225301 | 75 | 140 | 0.0 | 0.0 | 0.00 | 0.80 | 0.43 | 96 | 1015.7 |
| 20260902225202 | 75 | 140 | 0.0 | 0.0 | 0.00 | 0.80 | 0.43 | 96 | 1015.7 |
| 20260902224900 | 75 | 140 | 0.0 | 0.0 | 0.00 | 0.80 | 0.43 | 96 | 1015.7 |
| 20260902224701 | 75 | 139 | 0.0 | 0.0 | 0.01 | 0.80 | 0.43 | 96 | 1015.7 |
| 20260902224600 | 75 | 138 | 0.0 | 0.0 | 0.01 | 0.80 | 0.43 | 96 | 1015.7 |
| 20260902224503 | 75 | 138 | 0.0 | 0.0 | 0.01 | 0.80 | 0.43 | 96 | 1015.7 |
| 20260902224401 | 75 | 138 | 0.0 | 0.0 | 0.01 | 0.80 | 0.43 | 96 | 1015.6 |
| 20260902224300 | 75 | 139 | 0.0 | 0.0 | 0.01 | 0.80 | 0.43 | 96 | 1015.6 |
| 20260902224201 | 75 | 107 | 0.0 | 0.0 | 0.01 | 0.80 | 0.43 | 96 | 1015.6 |
| 20260902224102 | 75 | 108 | 0.0 | 0.0 | 0.01 | 0.80 | 0.43 | 96 | 1015.7 |
| 20260902224004 | 75 | 107 | 0.0 | 0.0 | 0.01 | 0.80 | 0.43 | 96 | 1015.7 |
| 20260902223901 | 75 | 107 | 0.0 | 0.0 | 0.01 | 0.80 | 0.43 | 96 | 1015.7 |
| 20260902223801 | 75 | 107 | 0.0 | 0.0 | 0.01 | 0.80 | 0.43 | 96 | 1015.8 |
| 20260902223701 | 75 | 107 | 0.0 | 0.0 | 0.01 | 0.80 | 0.43 | 96 | 1015.8 |
| 20260902223600 | 75 | 107 | 0.0 | 0.0 | 0.01 | 0.80 | 0.43 | 96 | 1015.8 |
| 20260902223503 | 75 | 107 | 0.0 | 0.0 | 0.01 | 0.80 | 0.43 | 96 | 1015.8 |
| 20260902223401 | 75 | 107 | 0.0 | 0.0 | 0.01 | 0.80 | 0.43 | 96 | 1015.8 |
| 20260902223300 | 75 | 107 | 0.0 | 0.0 | 0.01 | 0.80 | 0.43 | 96 | 1015.8 |
| 20260902223101 | 75 | 107 | 0.0 | 0.0 | 0.01 | 0.80 | 0.43 | 96 | 1015.8 |
| 20260902223003 | 75 | 108 | 0.0 | 0.0 | 0.01 | 0.80 | 0.43 | 96 | 1015.8 |
| 20260902222900 | 75 | 107 | 0.0 | 0.0 | 0.01 | 0.80 | 0.43 | 96 | 1015.8 |
| 20260902222800 | 75 | 107 | 0.0 | 0.0 | 0.01 | 0.80 | 0.43 | 96 | 1015.8 |
| 20260902222700 | 75 | 107 | 0.0 | 0.0 | 0.01 | 0.80 | 0.43 | 96 | 1015.8 |
| 20260902222601 | 75 | 107 | 0.0 | 0.0 | 0.01 | 0.80 | 0.43 | 96 | 1015.8 |
| 20260902222504 | 75 | 107 | 0.0 | 0.0 | 0.01 | 0.80 | 0.43 | 95 | 1015.8 |
| 20260902222400 | 75 | 107 | 0.0 | 0.0 | 0.01 | 0.80 | 0.43 | 95 | 1015.8 |
| 20260902222305 | 75 | 107 | 0.0 | 0.0 | 0.01 | 0.80 | 0.43 | 95 | 1015.7 |
| 20260902222200 | 75 | 107 | 0.0 | 0.0 | 0.01 | 0.80 | 0.43 | 95 | 1015.7 |
| 20260902222003 | 75 | 159 | 0.0 | 0.0 | 0.01 | 0.80 | 0.43 | 95 | 1015.7 |
| 20260902221700 | 75 | 159 | 0.0 | 0.0 | 0.01 | 0.80 | 0.43 | 95 | 1015.6 |
| 20260902221601 | 75 | 159 | 0.0 | 0.0 | 0.01 | 0.80 | 0.43 | 95 | 1015.5 |
| 20260902221502 | 75 | 159 | 0.0 | 0.0 | 0.01 | 0.80 | 0.43 | 95 | 1015.5 |
| 20260902221403 | 75 | 159 | 0.0 | 1.0 | 0.01 | 0.80 | 0.43 | 95 | 1015.5 |
| 20260902221302 | 76 | 159 | 0.0 | 2.0 | 0.01 | 0.80 | 0.43 | 95 | 1015.5 |
| 20260902221202 | 76 | 159 | 0.0 | 2.0 | 0.01 | 0.80 | 0.43 | 95 | 1015.6 |
| 20260902220901 | 76 | 159 | 0.0 | 2.0 | 0.01 | 0.80 | 0.43 | 95 | 1015.7 |
| 20260902220800 | 76 | 159 | 0.0 | 2.0 | 0.01 | 0.80 | 0.43 | 95 | 1015.7 |
| 20260902220700 | 76 | 159 | 0.0 | 2.0 | 0.01 | 0.80 | 0.43 | 95 | 1015.7 |
| 20260902220601 | 76 | 159 | 0.0 | 5.0 | 0.01 | 0.80 | 0.43 | 95 | 1015.8 |
| 20260902220505 | 76 | 159 | 0.0 | 5.0 | 0.01 | 0.80 | 0.43 | 95 | 1015.7 |
| 20260902220401 | 76 | 159 | 1.0 | 5.0 | 0.01 | 0.80 | 0.43 | 94 | 1015.7 |
| 20260902220300 | 76 | 159 | 0.0 | 5.0 | 0.02 | 0.80 | 0.43 | 94 | 1015.7 |
| 20260902220202 | 76 | 159 | 0.0 | 5.0 | 0.02 | 0.80 | 0.43 | 94 | 1015.7 |
| 20260902220100 | 76 | 159 | 1.0 | 5.0 | 0.02 | 0.80 | 0.43 | 95 | 1015.7 |
| 20260902220005 | 76 | 159 | 0.0 | 5.0 | 0.02 | 0.80 | 0.43 | 95 | 1015.7 |
| 20260902215859 | 76 | 159 | 1.0 | 5.0 | 0.02 | 0.80 | 0.43 | 95 | 1015.7 |
| 20260902215759 | 76 | 159 | 1.0 | 5.0 | 0.02 | 0.80 | 0.43 | 95 | 1015.6 |
| 20260902215700 | 76 | 159 | 4.0 | 5.0 | 0.02 | 0.80 | 0.43 | 95 | 1015.6 |
| 20260902215600 | 76 | 141 | 3.0 | 3.0 | 0.02 | 0.80 | 0.43 | 95 | 1015.6 |
| 20260902215502 | 76 | 140 | 0.0 | 3.0 | 0.02 | 0.80 | 0.43 | 95 | 1015.6 |
| 20260902215359 | 76 | 140 | 0.0 | 3.0 | 0.02 | 0.80 | 0.43 | 95 | 1015.6 |
| 20260902215300 | 76 | 140 | 0.0 | 3.0 | 0.02 | 0.80 | 0.43 | 94 | 1015.7 |
| 20260902215159 | 76 | 140 | 0.0 | 3.0 | 0.02 | 0.80 | 0.43 | 94 | 1015.7 |
| 20260902215059 | 76 | 140 | 2.0 | 3.0 | 0.02 | 0.80 | 0.43 | 94 | 1015.7 |
| 20260902215002 | 76 | 140 | 0.0 | 3.0 | 0.02 | 0.80 | 0.43 | 95 | 1015.7 |
| 20260902214859 | 76 | 140 | 0.0 | 3.0 | 0.02 | 0.80 | 0.43 | 95 | 1015.8 |
| 20260902214759 | 76 | 140 | 0.0 | 3.0 | 0.01 | 0.79 | 0.42 | 94 | 1015.8 |
| 20260902214659 | 76 | 140 | 0.0 | 3.0 | 0.01 | 0.79 | 0.42 | 94 | 1015.8 |
| 20260902214559 | 76 | 140 | 2.0 | 3.0 | 0.01 | 0.79 | 0.42 | 95 | 1015.8 |
| 20260902214502 | 76 | 140 | 0.0 | 2.0 | 0.01 | 0.79 | 0.42 | 95 | 1015.8 |
| 20260902214359 | 76 | 140 | 0.0 | 2.0 | 0.01 | 0.79 | 0.42 | 95 | 1015.9 |
| 20260902214300 | 76 | 140 | 0.0 | 2.0 | 0.01 | 0.79 | 0.42 | 95 | 1015.9 |
| 20260902214200 | 76 | 140 | 0.0 | 2.0 | 0.01 | 0.79 | 0.42 | 95 | 1015.9 |
| 20260902214059 | 76 | 140 | 0.0 | 2.0 | 0.01 | 0.79 | 0.42 | 95 | 1015.9 |
| 20260902214002 | 76 | 140 | 0.0 | 2.0 | 0.01 | 0.79 | 0.42 | 95 | 1015.9 |
| 20260902213859 | 76 | 140 | 0.0 | 2.0 | 0.01 | 0.79 | 0.42 | 95 | 1016.0 |
| 20260902213801 | 76 | 140 | 1.0 | 2.0 | 0.01 | 0.79 | 0.42 | 95 | 1016.0 |
| 20260902213659 | 76 | 140 | 0.0 | 2.0 | 0.01 | 0.79 | 0.42 | 95 | 1016.0 |
| 20260902213600 | 76 | 140 | 0.0 | 2.0 | 0.01 | 0.79 | 0.42 | 95 | 1016.0 |
| 20260902213502 | 76 | 142 | 0.0 | 2.0 | 0.01 | 0.79 | 0.42 | 95 | 1016.0 |
| 20260902213359 | 76 | 142 | 1.0 | 2.0 | 0.01 | 0.79 | 0.42 | 95 | 1016.0 |
| 20260902213300 | 76 | 142 | 2.0 | 2.0 | 0.01 | 0.79 | 0.42 | 95 | 1016.0 |
| 20260902213159 | 76 | 142 | 0.0 | 1.0 | 0.01 | 0.79 | 0.42 | 95 | 1016.0 |
| 20260902213059 | 76 | 142 | 0.0 | 2.0 | 0.01 | 0.79 | 0.42 | 95 | 1016.0 |
| 20260902213003 | 76 | 142 | 0.0 | 2.0 | 0.01 | 0.79 | 0.42 | 95 | 1016.0 |
| 20260902212859 | 76 | 142 | 0.0 | 2.0 | 0.01 | 0.79 | 0.42 | 95 | 1016.0 |
| 20260902212759 | 76 | 142 | 0.0 | 2.0 | 0.01 | 0.79 | 0.42 | 95 | 1016.1 |
| 20260902212700 | 76 | 142 | 0.0 | 2.0 | 0.01 | 0.79 | 0.42 | 95 | 1016.1 |
| 20260902212559 | 76 | 142 | 0.0 | 3.0 | 0.01 | 0.79 | 0.42 | 95 | 1016.1 |
| 20260902212502 | 76 | 142 | 0.0 | 3.0 | 0.01 | 0.79 | 0.42 | 94 | 1016.0 |
| 20260902212400 | 76 | 142 | 0.0 | 3.0 | 0.01 | 0.79 | 0.42 | 94 | 1016.0 |
| 20260902212058 | 76 | 142 | 0.0 | 5.0 | 0.01 | 0.79 | 0.42 | 95 | 1015.9 |
| 20260902212003 | 76 | 142 | 1.0 | 5.0 | 0.01 | 0.79 | 0.42 | 94 | 1016.0 |
| 20260902211900 | 76 | 142 | 1.0 | 5.0 | 0.01 | 0.79 | 0.42 | 94 | 1016.0 |
| 20260902211759 | 76 | 79 | 0.0 | 5.0 | 0.01 | 0.79 | 0.42 | 95 | 1016.0 |
| 20260902211559 | 76 | 79 | 1.0 | 5.0 | 0.01 | 0.79 | 0.42 | 95 | 1016.0 |
| 20260902211502 | 76 | 82 | 2.0 | 5.0 | 0.01 | 0.79 | 0.42 | 95 | 1016.0 |
| 20260902211402 | 76 | 187 | 0.0 | 5.0 | 0.01 | 0.79 | 0.42 | 95 | 1016.0 |
| 20260902211259 | 76 | 187 | 2.0 | 5.0 | 0.01 | 0.79 | 0.42 | 95 | 1016.0 |
| 20260902211159 | 76 | 111 | 1.0 | 5.0 | 0.01 | 0.79 | 0.42 | 95 | 1016.0 |
| 20260902211101 | 76 | 112 | 0.0 | 5.0 | 0.01 | 0.79 | 0.42 | 95 | 1016.1 |
| 20260902211002 | 76 | 109 | 2.0 | 5.0 | 0.01 | 0.79 | 0.42 | 95 | 1016.0 |
| 20260902210859 | 76 | 71 | 1.0 | 5.0 | 0.01 | 0.79 | 0.42 | 95 | 1016.1 |
| 20260902210800 | 76 | 65 | 1.0 | 5.0 | 0.01 | 0.79 | 0.42 | 95 | 1016.0 |
| 20260902210659 | 76 | 184 | 0.0 | 5.0 | 0.01 | 0.79 | 0.42 | 95 | 1016.1 |
| 20260902210600 | 76 | 184 | 0.0 | 5.0 | 0.02 | 0.79 | 0.42 | 95 | 1016.0 |
| 20260902210502 | 76 | 184 | 0.0 | 5.0 | 0.02 | 0.79 | 0.42 | 95 | 1016.0 |
| 20260902210300 | 76 | 188 | 1.0 | 5.0 | 0.01 | 0.78 | 0.41 | 95 | 1016.1 |
| 20260902210200 | 76 | 174 | 5.0 | 5.0 | 0.01 | 0.78 | 0.41 | 95 | 1016.0 |
| 20260902210004 | 76 | 148 | 2.0 | 3.0 | 0.01 | 0.78 | 0.41 | 95 | 1016.1 |
| 20260902205859 | 76 | 148 | 0.0 | 3.0 | 0.01 | 0.78 | 0.41 | 95 | 1016.1 |
| 20260902205800 | 76 | 151 | 0.0 | 3.0 | 0.01 | 0.78 | 0.41 | 95 | 1016.1 |
| 20260902205700 | 76 | 113 | 0.0 | 3.0 | 0.01 | 0.78 | 0.41 | 95 | 1016.1 |
| 20260902205559 | 76 | 113 | 2.0 | 2.0 | 0.01 | 0.78 | 0.41 | 95 | 1016.1 |
| 20260902205501 | 76 | 142 | 0.0 | 2.0 | 0.01 | 0.78 | 0.41 | 96 | 1016.1 |
| 20260902205100 | 76 | 138 | 0.0 | 2.0 | 0.01 | 0.78 | 0.41 | 95 | 1016.2 |
| 20260902205002 | 76 | 138 | 0.0 | 2.0 | 0.01 | 0.78 | 0.41 | 95 | 1016.2 |
| 20260902204859 | 76 | 138 | 0.0 | 2.0 | 0.01 | 0.78 | 0.41 | 95 | 1016.2 |
| 20260902204801 | 76 | 142 | 0.0 | 2.0 | 0.01 | 0.78 | 0.41 | 95 | 1016.2 |
| 20260902204559 | 76 | 142 | 0.0 | 5.0 | 0.01 | 0.78 | 0.41 | 95 | 1016.2 |
| 20260902204359 | 76 | 175 | 0.0 | 5.0 | 0.02 | 0.78 | 0.41 | 95 | 1016.2 |
| 20260902204259 | 76 | 175 | 0.0 | 5.0 | 0.02 | 0.78 | 0.41 | 95 | 1016.2 |
| 20260902204159 | 76 | 175 | 0.0 | 5.0 | 0.02 | 0.78 | 0.41 | 95 | 1016.2 |
| 20260902204100 | 76 | 175 | 1.0 | 5.0 | 0.02 | 0.78 | 0.41 | 95 | 1016.1 |
| 20260902204002 | 76 | 175 | 0.0 | 5.0 | 0.02 | 0.78 | 0.41 | 95 | 1016.1 |
| 20260902203859 | 76 | 175 | 0.0 | 5.0 | 0.02 | 0.78 | 0.41 | 95 | 1016.1 |
| 20260902203800 | 76 | 181 | 3.0 | 5.0 | 0.02 | 0.78 | 0.41 | 95 | 1016.1 |
| 20260902203600 | 76 | 175 | 1.0 | 3.0 | 0.02 | 0.78 | 0.41 | 95 | 1016.2 |
| 20260902203503 | 76 | 139 | 0.0 | 3.0 | 0.02 | 0.78 | 0.41 | 95 | 1016.1 |
| 20260902203400 | 76 | 139 | 0.0 | 4.0 | 0.02 | 0.78 | 0.41 | 95 | 1016.1 |
| 20260902203300 | 76 | 138 | 1.0 | 4.0 | 0.02 | 0.78 | 0.41 | 95 | 1016.1 |
| 20260902203159 | 76 | 138 | 0.0 | 4.0 | 0.02 | 0.78 | 0.41 | 95 | 1016.1 |
| 20260902203101 | 76 | 141 | 0.0 | 4.0 | 0.02 | 0.78 | 0.41 | 95 | 1016.1 |
| 20260902203003 | 76 | 134 | 0.0 | 4.0 | 0.02 | 0.78 | 0.41 | 95 | 1016.1 |
| 20260902202859 | 76 | 134 | 1.0 | 5.0 | 0.02 | 0.78 | 0.41 | 95 | 1016.1 |
| 20260902202700 | 76 | 184 | 1.0 | 5.0 | 0.02 | 0.78 | 0.41 | 95 | 1016.2 |
| 20260902202600 | 76 | 187 | 1.0 | 5.0 | 0.02 | 0.78 | 0.41 | 96 | 1016.2 |
| 20260902202500 | 76 | 187 | 2.0 | 5.0 | 0.02 | 0.78 | 0.41 | 96 | 1016.2 |
| 20260902202259 | 76 | 159 | 4.0 | 5.0 | 0.02 | 0.78 | 0.41 | 96 | 1016.1 |
| 20260902202059 | 76 | 144 | 1.0 | 5.0 | 0.02 | 0.78 | 0.41 | 97 | 1016.1 |
| 20260902202003 | 76 | 188 | 1.0 | 4.0 | 0.02 | 0.78 | 0.41 | 97 | 1016.1 |
| 20260902201900 | 76 | 153 | 0.0 | 2.0 | 0.02 | 0.78 | 0.41 | 97 | 1016.1 |
| 20260902201801 | 76 | 153 | 2.0 | 3.0 | 0.02 | 0.78 | 0.41 | 97 | 1016.1 |
| 20260902201659 | 75 | 153 | 1.0 | 3.0 | 0.02 | 0.78 | 0.41 | 97 | 1016.1 |
| 20260902201559 | 75 | 153 | 1.0 | 3.0 | 0.02 | 0.78 | 0.41 | 97 | 1016.1 |
| 20260902201503 | 75 | 153 | 0.0 | 4.0 | 0.02 | 0.78 | 0.41 | 97 | 1016.0 |
| 20260902201401 | 75 | 153 | 1.0 | 4.0 | 0.02 | 0.78 | 0.41 | 97 | 1016.0 |
| 20260902201200 | 75 | 124 | 0.0 | 4.0 | 0.02 | 0.78 | 0.41 | 97 | 1015.9 |
| 20260902201001 | 75 | 124 | 0.0 | 4.0 | 0.02 | 0.78 | 0.41 | 97 | 1015.9 |
| 20260902200900 | 75 | 123 | 1.0 | 4.0 | 0.02 | 0.78 | 0.41 | 97 | 1015.9 |
| 20260902200502 | 75 | 159 | 2.0 | 3.0 | 0.02 | 0.77 | 0.40 | 97 | 1015.9 |
| 20260902200300 | 75 | 157 | 3.0 | 3.0 | 0.02 | 0.77 | 0.40 | 98 | 1015.8 |
| 20260902200200 | 75 | 173 | 0.0 | 5.0 | 0.02 | 0.77 | 0.40 | 98 | 1015.9 |
| 20260902200100 | 75 | 173 | 0.0 | 5.0 | 0.02 | 0.77 | 0.40 | 98 | 1015.9 |
| 20260902200003 | 75 | 90 | 1.0 | 5.0 | 0.02 | 0.77 | 0.40 | 98 | 1015.9 |
| 20260902195900 | 75 | 90 | 1.0 | 5.0 | 0.02 | 0.77 | 0.40 | 98 | 1015.9 |
| 20260902195559 | 75 | 131 | 2.0 | 5.0 | 0.02 | 0.77 | 0.40 | 98 | 1016.0 |
| 20260902195503 | 75 | 131 | 0.0 | 5.0 | 0.03 | 0.77 | 0.40 | 98 | 1016.0 |
| 20260902195359 | 75 | 78 | 3.0 | 5.0 | 0.03 | 0.77 | 0.40 | 97 | 1016.0 |
| 20260902195259 | 75 | 78 | 4.0 | 4.0 | 0.03 | 0.77 | 0.40 | 97 | 1016.1 |
| 20260902195102 | 75 | 220 | 0.0 | 4.0 | 0.03 | 0.77 | 0.40 | 97 | 1016.1 |
| 20260902195004 | 75 | 129 | 1.0 | 4.0 | 0.03 | 0.77 | 0.40 | 97 | 1016.1 |
| 20260902194900 | 75 | 163 | 2.0 | 4.0 | 0.03 | 0.77 | 0.40 | 97 | 1016.1 |
| 20260902194759 | 75 | 192 | 1.0 | 4.0 | 0.03 | 0.77 | 0.40 | 97 | 1016.1 |
| 20260902194659 | 75 | 192 | 1.0 | 4.0 | 0.03 | 0.77 | 0.40 | 97 | 1016.1 |
| 20260902194600 | 75 | 123 | 1.0 | 4.0 | 0.03 | 0.77 | 0.40 | 97 | 1016.2 |
| 20260902194359 | 75 | 74 | 3.0 | 4.0 | 0.02 | 0.76 | 0.39 | 97 | 1016.3 |
| 20260902194259 | 75 | 125 | 2.0 | 2.0 | 0.02 | 0.76 | 0.39 | 97 | 1016.4 |
| 20260902194200 | 75 | 138 | 1.0 | 2.0 | 0.02 | 0.76 | 0.39 | 97 | 1016.4 |
| 20260902194059 | 75 | 137 | 1.0 | 2.0 | 0.02 | 0.76 | 0.39 | 97 | 1016.4 |
| 20260902194002 | 75 | 138 | 0.0 | 2.0 | 0.02 | 0.76 | 0.39 | 97 | 1016.4 |
| 20260902193801 | 75 | 137 | 1.0 | 2.0 | 0.02 | 0.76 | 0.39 | 97 | 1016.5 |
| 20260902193601 | 74 | 137 | 0.0 | 2.0 | 0.02 | 0.76 | 0.39 | 97 | 1016.7 |
| 20260902193502 | 74 | 137 | 0.0 | 2.0 | 0.03 | 0.76 | 0.39 | 97 | 1016.8 |
| 20260902193400 | 74 | 137 | 1.0 | 2.0 | 0.03 | 0.76 | 0.39 | 97 | 1016.8 |
| 20260902193259 | 74 | 137 | 0.0 | 2.0 | 0.03 | 0.76 | 0.39 | 97 | 1016.8 |
| 20260902193059 | 74 | 137 | 0.0 | 2.0 | 0.03 | 0.76 | 0.39 | 97 | 1016.8 |
| 20260902193003 | 74 | 137 | 0.0 | 2.0 | 0.03 | 0.76 | 0.39 | 97 | 1016.9 |
| 20260902192900 | 74 | 137 | 0.0 | 2.0 | 0.03 | 0.76 | 0.39 | 97 | 1016.9 |
| 20260902192659 | 74 | 137 | 1.0 | 2.0 | 0.03 | 0.76 | 0.39 | 97 | 1017.0 |
| 20260902192559 | 74 | 138 | 2.0 | 2.0 | 0.03 | 0.76 | 0.39 | 97 | 1017.0 |
| 20260902192358 | 74 | 154 | 0.0 | 3.0 | 0.03 | 0.76 | 0.39 | 97 | 1017.0 |
| 20260902192259 | 74 | 155 | 0.0 | 3.0 | 0.03 | 0.76 | 0.39 | 97 | 1017.1 |
| 20260902192159 | 74 | 155 | 0.0 | 3.0 | 0.04 | 0.76 | 0.39 | 97 | 1017.1 |
| 20260902192100 | 74 | 155 | 0.0 | 3.0 | 0.04 | 0.76 | 0.39 | 97 | 1017.1 |
| 20260902192004 | 74 | 155 | 0.0 | 3.0 | 0.04 | 0.76 | 0.39 | 97 | 1017.1 |
| 20260902191900 | 74 | 155 | 1.0 | 3.0 | 0.04 | 0.76 | 0.39 | 97 | 1017.1 |
| 20260902191800 | 74 | 155 | 0.0 | 3.0 | 0.04 | 0.76 | 0.39 | 97 | 1017.1 |
| 20260902191659 | 74 | 155 | 1.0 | 3.0 | 0.04 | 0.76 | 0.39 | 97 | 1017.1 |
| 20260902191600 | 74 | 155 | 0.0 | 3.0 | 0.04 | 0.76 | 0.39 | 97 | 1017.1 |
| 20260902191503 | 74 | 155 | 1.0 | 3.0 | 0.04 | 0.76 | 0.39 | 98 | 1017.1 |
| 20260902191359 | 74 | 119 | 0.0 | 3.0 | 0.04 | 0.76 | 0.39 | 98 | 1017.1 |
| 20260902191258 | 74 | 119 | 0.0 | 3.0 | 0.04 | 0.76 | 0.39 | 98 | 1017.1 |
| 20260902191200 | 74 | 119 | 0.0 | 3.0 | 0.04 | 0.76 | 0.39 | 98 | 1017.2 |
| 20260902191059 | 74 | 119 | 0.0 | 3.0 | 0.04 | 0.76 | 0.39 | 98 | 1017.2 |
| 20260902191002 | 74 | 119 | 0.0 | 3.0 | 0.04 | 0.76 | 0.39 | 98 | 1017.1 |
| 20260902190900 | 74 | 119 | 1.0 | 3.0 | 0.04 | 0.76 | 0.39 | 98 | 1017.1 |
| 20260902190801 | 74 | 119 | 0.0 | 3.0 | 0.03 | 0.75 | 0.38 | 98 | 1017.1 |
| 20260902190600 | 74 | 126 | 1.0 | 1.0 | 0.04 | 0.75 | 0.38 | 98 | 1017.0 |
| 20260902190503 | 74 | 131 | 0.0 | 0.0 | 0.04 | 0.75 | 0.38 | 98 | 1017.0 |
| 20260902190400 | 74 | 131 | 0.0 | 0.0 | 0.04 | 0.75 | 0.38 | 98 | 1017.0 |
| 20260902190259 | 74 | 131 | 0.0 | 0.0 | 0.04 | 0.75 | 0.38 | 98 | 1016.9 |
| 20260902190059 | 74 | 131 | 0.0 | 0.0 | 0.04 | 0.75 | 0.38 | 98 | 1016.9 |
| 20260902190005 | 73 | 131 | 0.0 | 0.0 | 0.04 | 0.75 | 0.38 | 98 | 1016.9 |
| 20260902185859 | 73 | 131 | 0.0 | 0.0 | 0.04 | 0.75 | 0.38 | 98 | 1016.8 |
| 20260902185700 | 73 | 131 | 0.0 | 0.0 | 0.04 | 0.75 | 0.38 | 98 | 1016.7 |
| 20260902185600 | 73 | 131 | 0.0 | 0.0 | 0.05 | 0.75 | 0.38 | 98 | 1016.7 |
| 20260902185501 | 73 | 131 | 0.0 | 0.0 | 0.04 | 0.74 | 0.37 | 98 | 1016.7 |
| 20260902185400 | 73 | 131 | 0.0 | 0.0 | 0.04 | 0.74 | 0.37 | 98 | 1016.6 |
| 20260902185259 | 73 | 131 | 0.0 | 0.0 | 0.04 | 0.74 | 0.37 | 98 | 1016.6 |
| 20260902185059 | 73 | 131 | 0.0 | 0.0 | 0.04 | 0.74 | 0.37 | 98 | 1016.6 |
| 20260902185001 | 73 | 131 | 0.0 | 0.0 | 0.04 | 0.74 | 0.37 | 98 | 1016.5 |
| 20260902184859 | 73 | 131 | 0.0 | 0.0 | 0.04 | 0.74 | 0.37 | 98 | 1016.6 |
| 20260902184758 | 73 | 131 | 0.0 | 0.0 | 0.04 | 0.74 | 0.37 | 98 | 1016.6 |
| 20260902184659 | 73 | 131 | 0.0 | 0.0 | 0.04 | 0.74 | 0.37 | 98 | 1016.6 |
| 20260902184559 | 73 | 131 | 0.0 | 0.0 | 0.04 | 0.74 | 0.37 | 98 | 1016.5 |
| 20260902184259 | 72 | 131 | 0.0 | 0.0 | 0.05 | 0.74 | 0.37 | 98 | 1016.3 |
| 20260902184200 | 73 | 131 | 0.0 | 0.0 | 0.05 | 0.74 | 0.37 | 98 | 1016.3 |
| 20260902184100 | 73 | 131 | 0.0 | 0.0 | 0.05 | 0.74 | 0.37 | 98 | 1016.3 |
| 20260902184002 | 73 | 131 | 0.0 | 0.0 | 0.05 | 0.74 | 0.37 | 98 | 1016.4 |
| 20260902183900 | 73 | 131 | 0.0 | 0.0 | 0.05 | 0.74 | 0.37 | 98 | 1016.2 |
| 20260902183759 | 73 | 131 | 0.0 | 0.0 | 0.05 | 0.74 | 0.37 | 98 | 1016.2 |
| 20260902183700 | 72 | 131 | 0.0 | 0.0 | 0.05 | 0.74 | 0.37 | 98 | 1016.1 |
| 20260902183601 | 72 | 131 | 0.0 | 0.0 | 0.06 | 0.74 | 0.37 | 98 | 1015.9 |
| 20260902183503 | 72 | 131 | 0.0 | 0.0 | 0.05 | 0.73 | 0.36 | 98 | 1015.8 |
| 20260902183300 | 72 | 131 | 0.0 | 0.0 | 0.05 | 0.73 | 0.36 | 98 | 1015.9 |
| 20260902183200 | 72 | 131 | 0.0 | 0.0 | 0.05 | 0.73 | 0.36 | 98 | 1015.9 |
| 20260902182900 | 72 | 131 | 0.0 | 0.0 | 0.05 | 0.73 | 0.36 | 98 | 1016.2 |
| 20260902182759 | 72 | 131 | 0.0 | 0.0 | 0.05 | 0.73 | 0.36 | 98 | 1016.1 |
| 20260902182700 | 72 | 131 | 0.0 | 0.0 | 0.06 | 0.73 | 0.36 | 98 | 1016.2 |
| 20260902182559 | 72 | 131 | 0.0 | 0.0 | 0.06 | 0.73 | 0.36 | 98 | 1016.2 |
| 20260902182502 | 72 | 131 | 0.0 | 0.0 | 0.06 | 0.73 | 0.36 | 98 | 1016.3 |
| 20260902182359 | 72 | 131 | 0.0 | 0.0 | 0.06 | 0.73 | 0.36 | 98 | 1016.3 |
| 20260902182159 | 72 | 131 | 0.0 | 0.0 | 0.05 | 0.72 | 0.35 | 98 | 1016.4 |
| 20260902182100 | 72 | 131 | 0.0 | 0.0 | 0.05 | 0.72 | 0.35 | 98 | 1016.5 |
| 20260902182000 | 72 | 131 | 0.0 | 0.0 | 0.06 | 0.72 | 0.35 | 98 | 1016.5 |
| 20260902181900 | 72 | 131 | 0.0 | 0.0 | 0.06 | 0.72 | 0.35 | 98 | 1016.5 |
| 20260902181759 | 72 | 131 | 0.0 | 0.0 | 0.06 | 0.72 | 0.35 | 98 | 1016.5 |
| 20260902181659 | 72 | 131 | 0.0 | 0.0 | 0.06 | 0.72 | 0.35 | 98 | 1016.5 |
| 20260902181600 | 72 | 131 | 0.0 | 0.0 | 0.06 | 0.72 | 0.35 | 98 | 1016.6 |
| 20260902181503 | 72 | 131 | 0.0 | 0.0 | 0.06 | 0.72 | 0.35 | 98 | 1016.6 |
| 20260902181358 | 72 | 131 | 0.0 | 0.0 | 0.06 | 0.72 | 0.35 | 98 | 1016.7 |
| 20260902181259 | 72 | 131 | 0.0 | 0.0 | 0.06 | 0.72 | 0.35 | 98 | 1016.7 |
| 20260902181201 | 72 | 131 | 0.0 | 0.0 | 0.06 | 0.72 | 0.35 | 98 | 1016.7 |
| 20260902181100 | 72 | 131 | 0.0 | 0.0 | 0.07 | 0.72 | 0.35 | 98 | 1016.7 |
| 20260902181000 | 72 | 131 | 0.0 | 0.0 | 0.07 | 0.72 | 0.35 | 98 | 1016.7 |
| 20260902180858 | 72 | 131 | 0.0 | 0.0 | 0.07 | 0.72 | 0.35 | 98 | 1016.6 |
| 20260902180759 | 72 | 131 | 0.0 | 0.0 | 0.07 | 0.72 | 0.35 | 98 | 1016.6 |
| 20260902180600 | 72 | 131 | 0.0 | 0.0 | 0.07 | 0.71 | 0.34 | 98 | 1016.7 |
| 20260902180403 | 72 | 131 | 0.0 | 0.0 | 0.07 | 0.71 | 0.34 | 98 | 1016.7 |
| 20260902180259 | 72 | 131 | 0.0 | 0.0 | 0.07 | 0.71 | 0.34 | 98 | 1016.7 |
| 20260902180159 | 72 | 131 | 0.0 | 0.0 | 0.07 | 0.71 | 0.34 | 98 | 1016.8 |
| 20260902175859 | 72 | 131 | 0.0 | 0.0 | 0.08 | 0.71 | 0.34 | 98 | 1016.9 |
| 20260902175759 | 72 | 131 | 0.0 | 0.0 | 0.08 | 0.71 | 0.34 | 98 | 1017.0 |
| 20260902175659 | 72 | 131 | 0.0 | 0.0 | 0.08 | 0.71 | 0.34 | 98 | 1017.0 |
| 20260902175559 | 72 | 131 | 0.0 | 0.0 | 0.07 | 0.70 | 0.33 | 98 | 1017.0 |
| 20260902175400 | 72 | 131 | 0.0 | 0.0 | 0.08 | 0.70 | 0.33 | 98 | 1017.2 |
| 20260902175259 | 72 | 131 | 0.0 | 0.0 | 0.08 | 0.70 | 0.33 | 98 | 1017.3 |
| 20260902175159 | 72 | 131 | 0.0 | 0.0 | 0.08 | 0.70 | 0.33 | 98 | 1017.3 |
| 20260902175059 | 72 | 131 | 0.0 | 0.0 | 0.08 | 0.70 | 0.33 | 98 | 1017.3 |
| 20260902175001 | 72 | 131 | 0.0 | 0.0 | 0.08 | 0.70 | 0.33 | 98 | 1017.2 |
| 20260902174900 | 72 | 131 | 0.0 | 0.0 | 0.09 | 0.70 | 0.33 | 98 | 1017.2 |
| 20260902174700 | 72 | 131 | 0.0 | 0.0 | 0.09 | 0.70 | 0.33 | 98 | 1017.3 |
| 20260902174559 | 72 | 131 | 0.0 | 0.0 | 0.09 | 0.70 | 0.33 | 98 | 1017.4 |
| 20260902174501 | 72 | 131 | 0.0 | 0.0 | 0.10 | 0.70 | 0.33 | 98 | 1017.4 |
| 20260902174359 | 72 | 131 | 0.0 | 0.0 | 0.09 | 0.69 | 0.32 | 98 | 1017.4 |
| 20260902174159 | 72 | 131 | 0.0 | 0.0 | 0.09 | 0.69 | 0.32 | 97 | 1017.5 |
| 20260902174100 | 72 | 131 | 0.0 | 0.0 | 0.09 | 0.69 | 0.32 | 97 | 1017.5 |
| 20260902174001 | 72 | 131 | 0.0 | 0.0 | 0.09 | 0.69 | 0.32 | 97 | 1017.5 |
| 20260902173900 | 72 | 131 | 0.0 | 0.0 | 0.10 | 0.69 | 0.32 | 97 | 1017.6 |
| 20260902173759 | 72 | 131 | 0.0 | 0.0 | 0.10 | 0.69 | 0.32 | 97 | 1017.6 |
| 20260902173659 | 72 | 131 | 0.0 | 0.0 | 0.10 | 0.69 | 0.32 | 97 | 1017.7 |
| 20260902173559 | 72 | 131 | 0.0 | 0.0 | 0.10 | 0.68 | 0.31 | 97 | 1017.6 |
| 20260902173502 | 72 | 131 | 0.0 | 0.0 | 0.10 | 0.68 | 0.31 | 97 | 1017.7 |
| 20260902173400 | 72 | 131 | 0.0 | 0.0 | 0.10 | 0.68 | 0.31 | 97 | 1017.7 |
| 20260902173159 | 72 | 131 | 0.0 | 0.0 | 0.10 | 0.68 | 0.31 | 97 | 1017.7 |
| 20260902173059 | 72 | 131 | 0.0 | 0.0 | 0.11 | 0.68 | 0.31 | 97 | 1017.7 |
| 20260902173003 | 72 | 131 | 0.0 | 0.0 | 0.11 | 0.68 | 0.31 | 97 | 1017.7 |
| 20260902172900 | 72 | 131 | 0.0 | 0.0 | 0.12 | 0.68 | 0.31 | 97 | 1017.7 |
| 20260902172759 | 72 | 131 | 0.0 | 0.0 | 0.12 | 0.68 | 0.31 | 97 | 1017.7 |
| 20260902172659 | 72 | 131 | 0.0 | 0.0 | 0.11 | 0.67 | 0.30 | 97 | 1017.7 |
| 20260902172601 | 72 | 131 | 0.0 | 0.0 | 0.11 | 0.67 | 0.30 | 97 | 1017.7 |
| 20260902172500 | 72 | 131 | 0.0 | 0.0 | 0.11 | 0.67 | 0.30 | 97 | 1017.7 |
| 20260902172359 | 72 | 131 | 0.0 | 0.0 | 0.12 | 0.67 | 0.30 | 97 | 1017.7 |
| 20260902172301 | 72 | 131 | 0.0 | 0.0 | 0.12 | 0.67 | 0.30 | 97 | 1017.7 |
| 20260902172200 | 72 | 131 | 0.0 | 0.0 | 0.13 | 0.67 | 0.30 | 97 | 1017.7 |
| 20260902172059 | 71 | 131 | 0.0 | 0.0 | 0.13 | 0.67 | 0.30 | 97 | 1017.7 |
| 20260902172003 | 71 | 131 | 0.0 | 0.0 | 0.12 | 0.66 | 0.29 | 97 | 1017.7 |
| 20260902171900 | 71 | 131 | 0.0 | 0.0 | 0.12 | 0.66 | 0.29 | 97 | 1017.8 |
| 20260902171658 | 71 | 131 | 0.0 | 0.0 | 0.13 | 0.66 | 0.29 | 97 | 1017.8 |
| 20260902171559 | 71 | 131 | 0.0 | 0.0 | 0.14 | 0.66 | 0.29 | 97 | 1017.8 |
| 20260902171500 | 71 | 131 | 0.0 | 0.0 | 0.14 | 0.66 | 0.29 | 97 | 1017.8 |
| 20260902171400 | 71 | 131 | 0.0 | 0.0 | 0.14 | 0.66 | 0.29 | 97 | 1017.8 |
| 20260902171201 | 71 | 131 | 0.0 | 0.0 | 0.14 | 0.66 | 0.29 | 97 | 1017.7 |
| 20260902171003 | 71 | 131 | 0.0 | 0.0 | 0.14 | 0.65 | 0.28 | 97 | 1017.7 |
| 20260902170900 | 71 | 131 | 0.0 | 0.0 | 0.14 | 0.65 | 0.28 | 97 | 1017.8 |
| 20260902170759 | 71 | 131 | 0.0 | 0.0 | 0.15 | 0.65 | 0.28 | 97 | 1017.8 |
| 20260902170600 | 71 | 131 | 0.0 | 0.0 | 0.14 | 0.64 | 0.27 | 97 | 1017.9 |
| 20260902170501 | 71 | 131 | 0.0 | 0.0 | 0.15 | 0.64 | 0.27 | 97 | 1017.9 |
| 20260902170359 | 71 | 131 | 0.0 | 0.0 | 0.15 | 0.64 | 0.27 | 97 | 1018.0 |
| 20260902170301 | 71 | 131 | 0.0 | 0.0 | 0.16 | 0.64 | 0.27 | 97 | 1017.9 |
| 20260902170200 | 71 | 131 | 0.0 | 0.0 | 0.16 | 0.64 | 0.27 | 97 | 1018.0 |
| 20260902170004 | 71 | 131 | 0.0 | 0.0 | 0.16 | 0.64 | 0.27 | 97 | 1018.0 |
| 20260902165859 | 71 | 131 | 0.0 | 0.0 | 0.16 | 0.63 | 0.26 | 97 | 1018.1 |
| 20260902165700 | 71 | 131 | 0.0 | 0.0 | 0.17 | 0.63 | 0.26 | 97 | 1018.2 |
| 20260902165502 | 71 | 131 | 0.0 | 0.0 | 0.16 | 0.62 | 0.25 | 97 | 1018.2 |
| 20260902165359 | 71 | 131 | 0.0 | 0.0 | 0.16 | 0.62 | 0.25 | 97 | 1018.1 |
| 20260902165259 | 71 | 131 | 0.0 | 0.0 | 0.17 | 0.62 | 0.25 | 97 | 1018.2 |
| 20260902165201 | 71 | 131 | 0.0 | 0.0 | 0.17 | 0.62 | 0.25 | 97 | 1018.2 |
| 20260902165058 | 71 | 131 | 0.0 | 0.0 | 0.18 | 0.62 | 0.25 | 97 | 1018.2 |
| 20260902165001 | 71 | 131 | 0.0 | 0.0 | 0.18 | 0.62 | 0.25 | 97 | 1018.2 |
| 20260902164859 | 71 | 131 | 0.0 | 0.0 | 0.17 | 0.61 | 0.24 | 97 | 1018.3 |
| 20260902164700 | 71 | 131 | 0.0 | 0.0 | 0.17 | 0.61 | 0.24 | 97 | 1018.3 |
| 20260902164559 | 71 | 74 | 0.0 | 0.0 | 0.18 | 0.61 | 0.24 | 97 | 1018.3 |
| 20260902164501 | 71 | 74 | 0.0 | 0.0 | 0.17 | 0.60 | 0.23 | 97 | 1018.4 |
| 20260902164400 | 71 | 74 | 0.0 | 0.0 | 0.18 | 0.60 | 0.23 | 97 | 1018.4 |
| 20260902164259 | 71 | 74 | 0.0 | 0.0 | 0.18 | 0.60 | 0.23 | 97 | 1018.4 |
| 20260902164200 | 71 | 74 | 0.0 | 0.0 | 0.18 | 0.60 | 0.23 | 97 | 1018.3 |
| 20260902164002 | 71 | 74 | 0.0 | 0.0 | 0.20 | 0.60 | 0.23 | 97 | 1018.3 |
| 20260902163859 | 71 | 74 | 0.0 | 0.0 | 0.19 | 0.59 | 0.22 | 97 | 1018.1 |
| 20260902163800 | 71 | 74 | 0.0 | 0.0 | 0.19 | 0.59 | 0.22 | 97 | 1018.2 |
| 20260902163659 | 71 | 74 | 0.0 | 0.0 | 0.20 | 0.59 | 0.22 | 97 | 1018.2 |
| 20260902163501 | 71 | 74 | 0.0 | 0.0 | 0.20 | 0.58 | 0.21 | 97 | 1018.4 |
| 20260902163359 | 71 | 74 | 0.0 | 0.0 | 0.20 | 0.58 | 0.21 | 97 | 1018.4 |
| 20260902163258 | 71 | 74 | 0.0 | 0.0 | 0.20 | 0.58 | 0.21 | 97 | 1018.5 |
| 20260902163200 | 71 | 74 | 0.0 | 0.0 | 0.20 | 0.58 | 0.21 | 97 | 1018.4 |
| 20260902163101 | 71 | 74 | 0.0 | 0.0 | 0.19 | 0.57 | 0.20 | 97 | 1018.5 |
| 20260902163003 | 71 | 74 | 0.0 | 0.0 | 0.19 | 0.57 | 0.20 | 97 | 1018.6 |
| 20260902162800 | 71 | 74 | 0.0 | 1.0 | 0.18 | 0.56 | 0.19 | 96 | 1018.6 |
| 20260902162559 | 71 | 74 | 0.0 | 1.0 | 0.18 | 0.56 | 0.19 | 96 | 1018.8 |
| 20260902162500 | 71 | 74 | 0.0 | 1.0 | 0.18 | 0.56 | 0.19 | 96 | 1018.7 |
| 20260902162359 | 71 | 74 | 0.0 | 1.0 | 0.17 | 0.55 | 0.18 | 96 | 1018.7 |
| 20260902162300 | 71 | 74 | 0.0 | 1.0 | 0.17 | 0.55 | 0.18 | 96 | 1018.6 |
| 20260902162200 | 71 | 74 | 0.0 | 1.0 | 0.16 | 0.54 | 0.17 | 96 | 1018.6 |
| 20260902162100 | 71 | 74 | 0.0 | 1.0 | 0.16 | 0.54 | 0.17 | 96 | 1018.6 |
| 20260902162002 | 71 | 74 | 0.0 | 1.0 | 0.16 | 0.54 | 0.17 | 96 | 1018.7 |
| 20260902161859 | 71 | 74 | 0.0 | 1.0 | 0.16 | 0.54 | 0.17 | 96 | 1018.7 |
| 20260902161800 | 71 | 74 | 0.0 | 2.0 | 0.15 | 0.53 | 0.16 | 96 | 1018.7 |
| 20260902161600 | 72 | 74 | 0.0 | 2.0 | 0.14 | 0.52 | 0.15 | 96 | 1018.8 |
| 20260902161500 | 72 | 74 | 0.0 | 2.0 | 0.14 | 0.52 | 0.15 | 96 | 1018.9 |
| 20260902161400 | 72 | 74 | 0.0 | 2.0 | 0.14 | 0.52 | 0.15 | 96 | 1018.9 |
| 20260902161259 | 72 | 74 | 1.0 | 2.0 | 0.14 | 0.52 | 0.15 | 96 | 1018.8 |
| 20260902161201 | 72 | 74 | 0.0 | 2.0 | 0.14 | 0.52 | 0.15 | 96 | 1018.8 |
| 20260902161059 | 72 | 74 | 0.0 | 2.0 | 0.13 | 0.51 | 0.14 | 96 | 1018.7 |
| 20260902161000 | 72 | 74 | 0.0 | 2.0 | 0.13 | 0.51 | 0.14 | 96 | 1018.7 |
| 20260902160900 | 72 | 74 | 1.0 | 2.0 | 0.12 | 0.50 | 0.13 | 96 | 1018.8 |
| 20260902160800 | 72 | 74 | 1.0 | 2.0 | 0.12 | 0.50 | 0.13 | 96 | 1018.9 |
| 20260902160700 | 72 | 74 | 1.0 | 2.0 | 0.12 | 0.50 | 0.13 | 96 | 1019.0 |
| 20260902160559 | 72 | 74 | 0.0 | 3.0 | 0.12 | 0.50 | 0.13 | 96 | 1019.1 |
| 20260902160504 | 72 | 74 | 0.0 | 3.0 | 0.11 | 0.49 | 0.12 | 96 | 1019.2 |
| 20260902160400 | 72 | 74 | 0.0 | 3.0 | 0.11 | 0.49 | 0.12 | 96 | 1019.2 |
| 20260902160259 | 72 | 74 | 0.0 | 4.0 | 0.10 | 0.48 | 0.11 | 96 | 1019.2 |
| 20260902160159 | 72 | 74 | 0.0 | 4.0 | 0.10 | 0.48 | 0.11 | 96 | 1019.2 |
| 20260902160002 | 72 | 74 | 2.0 | 8.0 | 0.10 | 0.48 | 0.11 | 96 | 1019.3 |
| 20260902155859 | 72 | 74 | 0.0 | 12.0 | 0.09 | 0.47 | 0.10 | 96 | 1019.4 |
| 20260902155801 | 72 | 74 | 1.0 | 12.0 | 0.09 | 0.47 | 0.10 | 96 | 1019.4 |
| 20260902155359 | 72 | 78 | 4.0 | 12.0 | 0.08 | 0.46 | 0.09 | 97 | 1019.3 |
| 20260902155300 | 72 | 67 | 3.0 | 12.0 | 0.07 | 0.45 | 0.08 | 97 | 1019.2 |
| 20260902155159 | 72 | 38 | 6.0 | 12.0 | 0.07 | 0.45 | 0.08 | 97 | 1019.2 |
| 20260902155059 | 72 | 49 | 3.0 | 12.0 | 0.06 | 0.44 | 0.07 | 97 | 1019.2 |
| 20260902155003 | 72 | 69 | 4.0 | 12.0 | 0.06 | 0.44 | 0.07 | 97 | 1019.3 |
| 20260902154900 | 72 | 355 | 2.0 | 4.0 | 0.06 | 0.44 | 0.07 | 97 | 1019.0 |
| 20260902154659 | 72 | 78 | 3.0 | 4.0 | 0.05 | 0.43 | 0.06 | 97 | 1019.0 |
| 20260902154359 | 72 | 59 | 1.0 | 4.0 | 0.04 | 0.42 | 0.05 | 97 | 1019.3 |
| 20260902154300 | 72 | 58 | 2.0 | 4.0 | 0.04 | 0.42 | 0.05 | 97 | 1019.4 |
| 20260902154101 | 73 | 323 | 2.0 | 4.0 | 0.02 | 0.40 | 0.03 | 97 | 1019.7 |
| 20260902154003 | 73 | 316 | 2.0 | 4.0 | 0.02 | 0.40 | 0.03 | 97 | 1019.6 |
| 20260902153759 | 73 | 316 | 1.0 | 4.0 | 0.01 | 0.39 | 0.02 | 97 | 1019.6 |
| 20260902153659 | 73 | 316 | 2.0 | 4.0 | 0.01 | 0.39 | 0.02 | 97 | 1019.6 |
| 20260902153600 | 73 | 317 | 3.0 | 4.0 | 0.00 | 0.38 | 0.01 | 97 | 1019.6 |
| 20260902153503 | 73 | 119 | 1.0 | 3.0 | 0.00 | 0.38 | 0.01 | 97 | 1019.5 |
| 20260902153400 | 73 | 119 | 3.0 | 3.0 | 0.00 | 0.38 | 0.01 | 97 | 1019.3 |
| 20260902153300 | 73 | 119 | 2.0 | 3.0 | 0.00 | 0.38 | 0.01 | 97 | 1019.0 |
| 20260902153200 | 73 | 119 | 1.0 | 2.0 | 0.00 | 0.38 | 0.01 | 97 | 1018.8 |
| 20260902153101 | 73 | 119 | 0.0 | 0.0 | 0.00 | 0.38 | 0.01 | 97 | 1018.5 |
| 20260902153003 | 73 | 119 | 0.0 | 1.0 | 0.00 | 0.38 | 0.01 | 97 | 1018.3 |
| 20260902152900 | 73 | 119 | 0.0 | 1.0 | 0.00 | 0.38 | 0.01 | 97 | 1018.1 |
| 20260902152759 | 73 | 119 | 0.0 | 1.0 | 0.00 | 0.38 | 0.01 | 97 | 1018.0 |
| 20260902152600 | 73 | 119 | 0.0 | 1.0 | 0.00 | 0.38 | 0.01 | 97 | 1017.8 |
| 20260902152359 | 73 | 119 | 0.0 | 2.0 | 0.00 | 0.38 | 0.01 | 97 | 1017.8 |
| 20260902152002 | 73 | 119 | 0.0 | 3.0 | 0.00 | 0.38 | 0.01 | 97 | 1017.8 |
| 20260902151900 | 73 | 119 | 0.0 | 3.0 | 0.00 | 0.38 | 0.01 | 97 | 1017.8 |
| 20260902151800 | 73 | 119 | 0.0 | 3.0 | 0.00 | 0.38 | 0.01 | 97 | 1017.8 |
| 20260902151700 | 73 | 119 | 1.0 | 3.0 | 0.00 | 0.38 | 0.01 | 97 | 1017.8 |
| 20260902151600 | 73 | 119 | 0.0 | 3.0 | 0.00 | 0.38 | 0.01 | 97 | 1017.8 |
| 20260902151259 | 73 | 120 | 1.0 | 3.0 | 0.00 | 0.38 | 0.01 | 97 | 1017.7 |
| 20260902151200 | 73 | 119 | 3.0 | 3.0 | 0.00 | 0.38 | 0.01 | 97 | 1017.6 |
| 20260902151100 | 73 | 105 | 0.0 | 3.0 | 0.00 | 0.38 | 0.01 | 97 | 1017.6 |
| 20260902151001 | 73 | 105 | 1.0 | 3.0 | 0.00 | 0.38 | 0.01 | 97 | 1017.7 |
| 20260902150800 | 73 | 102 | 2.0 | 3.0 | 0.00 | 0.38 | 0.01 | 97 | 1017.7 |
| 20260902150701 | 73 | 102 | 1.0 | 4.0 | 0.00 | 0.38 | 0.01 | 97 | 1017.7 |
| 20260902150502 | 73 | 102 | 1.0 | 4.0 | 0.00 | 0.38 | 0.01 | 97 | 1017.6 |
| 20260902150400 | 73 | 102 | 1.0 | 4.0 | 0.00 | 0.38 | 0.01 | 97 | 1017.5 |
| 20260902150300 | 73 | 103 | 2.0 | 4.0 | 0.00 | 0.38 | 0.01 | 97 | 1017.5 |
| 20260902150200 | 73 | 103 | 1.0 | 4.0 | 0.00 | 0.38 | 0.01 | 97 | 1017.5 |
| 20260902150059 | 73 | 103 | 0.0 | 4.0 | 0.00 | 0.38 | 0.01 | 97 | 1017.5 |
| 20260902150002 | 73 | 103 | 0.0 | 4.0 | 0.00 | 0.38 | 0.01 | 97 | 1017.4 |
| 20260902145900 | 73 | 101 | 0.0 | 4.0 | 0.00 | 0.38 | 0.01 | 97 | 1017.4 |
| 20260902145800 | 73 | 101 | 2.0 | 4.0 | 0.00 | 0.38 | 0.01 | 97 | 1017.4 |
| 20260902145659 | 73 | 148 | 1.0 | 3.0 | 0.00 | 0.38 | 0.01 | 97 | 1017.4 |
| 20260902145502 | 73 | 132 | 3.0 | 3.0 | 0.00 | 0.38 | 0.01 | 97 | 1017.4 |
| 20260902145400 | 73 | 115 | 0.0 | 3.0 | 0.00 | 0.38 | 0.01 | 97 | 1017.4 |
| 20260902145300 | 73 | 108 | 0.0 | 3.0 | 0.00 | 0.38 | 0.01 | 97 | 1017.4 |
| 20260902145159 | 73 | 109 | 3.0 | 3.0 | 0.00 | 0.38 | 0.01 | 97 | 1017.4 |
| 20260902145100 | 73 | 164 | 1.0 | 3.0 | 0.00 | 0.38 | 0.01 | 97 | 1017.5 |
| 20260902145002 | 73 | 117 | 0.0 | 3.0 | 0.00 | 0.38 | 0.01 | 97 | 1017.5 |
| 20260902144900 | 73 | 159 | 2.0 | 3.0 | 0.00 | 0.38 | 0.01 | 97 | 1017.4 |
| 20260902144800 | 73 | 161 | 1.0 | 3.0 | 0.00 | 0.38 | 0.01 | 97 | 1017.4 |
| 20260902144700 | 73 | 80 | 0.0 | 3.0 | 0.00 | 0.38 | 0.01 | 98 | 1017.3 |
| 20260902144559 | 73 | 80 | 0.0 | 3.0 | 0.00 | 0.38 | 0.01 | 98 | 1017.3 |
| 20260902144503 | 73 | 80 | 1.0 | 3.0 | 0.00 | 0.38 | 0.01 | 98 | 1017.3 |
| 20260902144359 | 73 | 80 | 0.0 | 4.0 | 0.00 | 0.38 | 0.01 | 98 | 1017.3 |
| 20260902144259 | 73 | 80 | 2.0 | 4.0 | 0.00 | 0.38 | 0.01 | 98 | 1017.4 |
| 20260902144059 | 73 | 68 | 1.0 | 4.0 | 0.00 | 0.38 | 0.01 | 98 | 1017.4 |
| 20260902144003 | 73 | 77 | 1.0 | 4.0 | 0.00 | 0.38 | 0.01 | 98 | 1017.5 |
| 20260902143659 | 73 | 162 | 0.0 | 4.0 | 0.00 | 0.38 | 0.01 | 98 | 1017.6 |
| 20260902143500 | 73 | 173 | 5.0 | 5.0 | 0.00 | 0.38 | 0.01 | 98 | 1017.6 |
| 20260902143359 | 73 | 157 | 3.0 | 6.0 | 0.00 | 0.38 | 0.01 | 98 | 1017.6 |
| 20260902143259 | 73 | 128 | 1.0 | 6.0 | 0.00 | 0.38 | 0.01 | 98 | 1017.6 |
| 20260902143200 | 72 | 88 | 1.0 | 6.0 | 0.00 | 0.38 | 0.01 | 98 | 1017.6 |
| 20260902143100 | 72 | 88 | 1.0 | 6.0 | 0.00 | 0.38 | 0.01 | 98 | 1017.6 |
| 20260902143000 | 72 | 81 | 3.0 | 6.0 | 0.00 | 0.38 | 0.01 | 98 | 1017.7 |
| 20260902142859 | 72 | 63 | 2.0 | 6.0 | 0.00 | 0.38 | 0.01 | 98 | 1017.7 |
| 20260902142700 | 72 | 139 | 0.0 | 6.0 | 0.00 | 0.38 | 0.01 | 99 | 1017.7 |
| 20260902142600 | 72 | 103 | 1.0 | 6.0 | 0.00 | 0.38 | 0.01 | 99 | 1017.7 |
| 20260902142504 | 72 | 58 | 5.0 | 6.0 | 0.00 | 0.38 | 0.01 | 99 | 1017.7 |
| 20260902142401 | 72 | 78 | 0.0 | 3.0 | 0.00 | 0.38 | 0.01 | 99 | 1017.8 |
| 20260902142300 | 72 | 78 | 0.0 | 3.0 | 0.00 | 0.38 | 0.01 | 99 | 1017.8 |
| 20260902142003 | 72 | 78 | 1.0 | 6.0 | 0.00 | 0.38 | 0.01 | 99 | 1017.7 |
| 20260902141900 | 72 | 79 | 0.0 | 6.0 | 0.00 | 0.38 | 0.01 | 99 | 1017.8 |
| 20260902141800 | 72 | 79 | 0.0 | 6.0 | 0.00 | 0.38 | 0.01 | 99 | 1017.8 |
| 20260902141700 | 72 | 71 | 1.0 | 6.0 | 0.00 | 0.38 | 0.01 | 99 | 1017.8 |
| 20260902141600 | 72 | 94 | 2.0 | 6.0 | 0.00 | 0.38 | 0.01 | 99 | 1017.8 |
| 20260902141400 | 71 | 98 | 1.0 | 6.0 | 0.00 | 0.38 | 0.01 | 99 | 1017.8 |
| 20260902141301 | 71 | 95 | 1.0 | 6.0 | 0.00 | 0.38 | 0.01 | 99 | 1017.8 |
| 20260902141101 | 71 | 47 | 1.0 | 6.0 | 0.00 | 0.38 | 0.01 | 99 | 1017.7 |
| 20260902140859 | 71 | 145 | 2.0 | 5.0 | 0.00 | 0.38 | 0.01 | 99 | 1017.8 |
| 20260902140659 | 71 | 92 | 3.0 | 6.0 | 0.00 | 0.38 | 0.01 | 99 | 1017.8 |
| 20260902140559 | 71 | 132 | 1.0 | 3.0 | 0.00 | 0.38 | 0.01 | 99 | 1017.9 |
| 20260902140300 | 71 | 88 | 1.0 | 3.0 | 0.00 | 0.38 | 0.01 | 99 | 1017.7 |
| 20260902140159 | 71 | 88 | 1.0 | 3.0 | 0.00 | 0.38 | 0.01 | 99 | 1017.8 |
| 20260902140059 | 71 | 113 | 2.0 | 3.0 | 0.00 | 0.38 | 0.01 | 99 | 1017.8 |
| 20260902140001 | 71 | 113 | 0.0 | 4.0 | 0.00 | 0.38 | 0.01 | 99 | 1017.8 |
| 20260902135858 | 71 | 113 | 0.0 | 5.0 | 0.00 | 0.38 | 0.01 | 99 | 1017.9 |
| 20260902135658 | 71 | 114 | 2.0 | 5.0 | 0.00 | 0.38 | 0.01 | 99 | 1017.7 |
| 20260902135559 | 71 | 136 | 1.0 | 5.0 | 0.00 | 0.38 | 0.01 | 99 | 1017.7 |
| 20260902135500 | 71 | 178 | 1.0 | 5.0 | 0.00 | 0.38 | 0.01 | 99 | 1017.7 |
| 20260902135359 | 71 | 183 | 0.0 | 5.0 | 0.00 | 0.38 | 0.01 | 99 | 1017.6 |
| 20260902135258 | 71 | 62 | 1.0 | 5.0 | 0.00 | 0.38 | 0.01 | 99 | 1017.7 |
| 20260902135158 | 71 | 62 | 0.0 | 5.0 | 0.00 | 0.38 | 0.01 | 99 | 1017.7 |
| 20260902135058 | 71 | 200 | 4.0 | 5.0 | 0.00 | 0.38 | 0.01 | 99 | 1017.8 |
| 20260902134859 | 71 | 315 | 3.0 | 5.0 | 0.00 | 0.38 | 0.01 | 99 | 1017.8 |
| 20260902134800 | 71 | 89 | 1.0 | 4.0 | 0.00 | 0.38 | 0.01 | 99 | 1017.9 |
| 20260902134659 | 71 | 72 | 2.0 | 4.0 | 0.00 | 0.38 | 0.01 | 99 | 1017.8 |
| 20260902134559 | 71 | 77 | 2.0 | 4.0 | 0.00 | 0.38 | 0.01 | 99 | 1017.7 |
| 20260902134359 | 71 | 70 | 2.0 | 4.0 | 0.00 | 0.38 | 0.01 | 99 | 1017.7 |
| 20260902134258 | 71 | 70 | 0.0 | 6.0 | 0.00 | 0.38 | 0.01 | 99 | 1017.6 |
| 20260902134158 | 71 | 70 | 3.0 | 6.0 | 0.00 | 0.38 | 0.01 | 99 | 1017.6 |
| 20260902134101 | 71 | 157 | 0.0 | 6.0 | 0.00 | 0.38 | 0.01 | 99 | 1017.5 |
| 20260902134000 | 71 | 157 | 0.0 | 8.0 | 0.00 | 0.38 | 0.01 | 99 | 1017.6 |
| 20260902133858 | 71 | 80 | 3.0 | 8.0 | 0.00 | 0.38 | 0.01 | 99 | 1017.6 |
| 20260902133758 | 71 | 141 | 1.0 | 8.0 | 0.00 | 0.38 | 0.01 | 99 | 1017.7 |
| 20260902133658 | 71 | 200 | 3.0 | 8.0 | 0.00 | 0.38 | 0.01 | 99 | 1017.6 |
| 20260902133558 | 71 | 66 | 2.0 | 8.0 | 0.00 | 0.38 | 0.01 | 99 | 1017.7 |
| 20260902133500 | 71 | 130 | 1.0 | 8.0 | 0.00 | 0.38 | 0.01 | 99 | 1017.6 |
| 20260902133357 | 71 | 84 | 1.0 | 8.0 | 0.00 | 0.38 | 0.01 | 99 | 1017.6 |
| 20260902133259 | 71 | 71 | 5.0 | 8.0 | 0.00 | 0.38 | 0.01 | 99 | 1017.6 |
| 20260902133159 | 71 | 68 | 3.0 | 8.0 | 0.00 | 0.38 | 0.01 | 99 | 1017.6 |
| 20260902133103 | 70 | 67 | 1.0 | 8.0 | 0.00 | 0.38 | 0.01 | 99 | 1017.6 |
| 20260902133000 | 70 | 71 | 6.0 | 6.0 | 0.00 | 0.38 | 0.01 | 99 | 1017.6 |
| 20260902132859 | 70 | 76 | 2.0 | 4.0 | 0.00 | 0.38 | 0.01 | 99 | 1017.7 |
| 20260902132800 | 70 | 76 | 0.0 | 4.0 | 0.00 | 0.38 | 0.01 | 99 | 1017.7 |
| 20260902132658 | 70 | 76 | 4.0 | 4.0 | 0.00 | 0.38 | 0.01 | 99 | 1017.8 |
| 20260902132558 | 70 | 121 | 2.0 | 5.0 | 0.00 | 0.38 | 0.01 | 99 | 1017.8 |
| 20260902132358 | 70 | 136 | 1.0 | 5.0 | 0.00 | 0.38 | 0.01 | 99 | 1017.8 |
| 20260902132259 | 70 | 136 | 1.0 | 5.0 | 0.00 | 0.38 | 0.01 | 99 | 1017.8 |
| 20260902132158 | 70 | 133 | 2.0 | 5.0 | 0.00 | 0.38 | 0.01 | 99 | 1017.8 |
| 20260902132059 | 70 | 222 | 0.0 | 5.0 | 0.00 | 0.38 | 0.01 | 99 | 1017.8 |
| 20260902132000 | 70 | 82 | 2.0 | 5.0 | 0.00 | 0.38 | 0.01 | 99 | 1017.8 |
| 20260902131858 | 70 | 29 | 3.0 | 5.0 | 0.00 | 0.38 | 0.01 | 99 | 1017.8 |
| 20260902131759 | 70 | 119 | 2.0 | 5.0 | 0.00 | 0.38 | 0.01 | 99 | 1017.8 |
| 20260902131659 | 70 | 98 | 2.0 | 5.0 | 0.00 | 0.38 | 0.01 | 99 | 1017.8 |
| 20260902131600 | 70 | 72 | 1.0 | 5.0 | 0.00 | 0.38 | 0.01 | 99 | 1017.8 |
| 20260902131358 | 70 | 99 | 3.0 | 5.0 | 0.00 | 0.38 | 0.01 | 99 | 1017.9 |
| 20260902131300 | 70 | 87 | 1.0 | 5.0 | 0.00 | 0.38 | 0.01 | 99 | 1018.0 |
| 20260902131158 | 70 | 76 | 3.0 | 5.0 | 0.00 | 0.38 | 0.01 | 99 | 1017.9 |
| 20260902131002 | 70 | 74 | 2.0 | 5.0 | 0.00 | 0.38 | 0.01 | 99 | 1017.8 |
| 20260902130858 | 70 | 82 | 2.0 | 5.0 | 0.00 | 0.38 | 0.01 | 99 | 1017.8 |
| 20260902130759 | 70 | 88 | 2.0 | 5.0 | 0.00 | 0.38 | 0.01 | 99 | 1017.8 |
| 20260902130658 | 70 | 117 | 1.0 | 5.0 | 0.00 | 0.38 | 0.01 | 99 | 1017.8 |
| 20260902130559 | 70 | 182 | 1.0 | 5.0 | 0.00 | 0.38 | 0.01 | 99 | 1017.7 |
| 20260902130500 | 70 | 143 | 2.0 | 5.0 | 0.00 | 0.38 | 0.01 | 99 | 1017.7 |
| 20260902130359 | 70 | 75 | 2.0 | 5.0 | 0.00 | 0.38 | 0.01 | 99 | 1017.7 |
| 20260902130300 | 70 | 84 | 2.0 | 5.0 | 0.00 | 0.38 | 0.01 | 99 | 1017.7 |
| 20260902130159 | 70 | 133 | 1.0 | 5.0 | 0.00 | 0.38 | 0.01 | 99 | 1017.7 |
| 20260902130100 | 70 | 92 | 2.0 | 5.0 | 0.00 | 0.38 | 0.01 | 99 | 1017.7 |
| 20260902130003 | 70 | 63 | 3.0 | 6.0 | 0.00 | 0.38 | 0.01 | 99 | 1017.7 |
| 20260902125859 | 70 | 67 | 1.0 | 6.0 | 0.00 | 0.38 | 0.01 | 99 | 1017.6 |
| 20260902125658 | 70 | 273 | 2.0 | 6.0 | 0.00 | 0.38 | 0.01 | 99 | 1017.5 |
| 20260902125600 | 70 | 290 | 1.0 | 6.0 | 0.00 | 0.38 | 0.01 | 99 | 1017.5 |
| 20260902125502 | 70 | 216 | 1.0 | 6.0 | 0.00 | 0.38 | 0.01 | 99 | 1017.4 |
| 20260902125400 | 70 | 167 | 3.0 | 6.0 | 0.00 | 0.38 | 0.01 | 99 | 1017.4 |
| 20260902125259 | 70 | 85 | 1.0 | 6.0 | 0.00 | 0.38 | 0.01 | 99 | 1017.3 |
| 20260902125158 | 70 | 85 | 1.0 | 6.0 | 0.00 | 0.38 | 0.01 | 99 | 1017.3 |
| 20260902125100 | 70 | 124 | 4.0 | 7.0 | 0.00 | 0.38 | 0.01 | 99 | 1017.3 |
| 20260902125003 | 70 | 53 | 1.0 | 6.0 | 0.00 | 0.38 | 0.01 | 99 | 1017.3 |
| 20260902124759 | 70 | 63 | 3.0 | 6.0 | 0.00 | 0.38 | 0.01 | 99 | 1017.3 |
| 20260902124659 | 70 | 81 | 2.0 | 6.0 | 0.00 | 0.38 | 0.01 | 99 | 1017.3 |
| 20260902124600 | 70 | 83 | 1.0 | 6.0 | 0.00 | 0.38 | 0.01 | 99 | 1017.3 |
| 20260902124502 | 70 | 82 | 1.0 | 6.0 | 0.00 | 0.38 | 0.01 | 99 | 1017.3 |
| 20260902124359 | 70 | 71 | 3.0 | 6.0 | 0.00 | 0.38 | 0.01 | 99 | 1017.3 |
| 20260902124259 | 70 | 72 | 1.0 | 6.0 | 0.00 | 0.38 | 0.01 | 99 | 1017.2 |
| 20260902124200 | 70 | 72 | 1.0 | 6.0 | 0.00 | 0.38 | 0.01 | 99 | 1017.2 |
| 20260902124059 | 70 | 36 | 4.0 | 5.0 | 0.00 | 0.38 | 0.01 | 99 | 1017.1 |
| 20260902124003 | 70 | 77 | 5.0 | 6.0 | 0.00 | 0.38 | 0.01 | 99 | 1017.1 |
| 20260902123900 | 70 | 92 | 0.0 | 5.0 | 0.00 | 0.38 | 0.01 | 99 | 1017.1 |
| 20260902123800 | 70 | 91 | 2.0 | 4.0 | 0.00 | 0.38 | 0.01 | 99 | 1017.1 |
| 20260902123659 | 70 | 67 | 0.0 | 4.0 | 0.00 | 0.38 | 0.01 | 99 | 1017.0 |
| 20260902123501 | 70 | 111 | 0.0 | 4.0 | 0.00 | 0.38 | 0.01 | 99 | 1017.0 |
| 20260902123400 | 70 | 100 | 0.0 | 2.0 | 0.00 | 0.38 | 0.01 | 99 | 1017.0 |
| 20260902123259 | 70 | 100 | 2.0 | 2.0 | 0.00 | 0.38 | 0.01 | 99 | 1017.0 |
| 20260902123100 | 70 | 111 | 2.0 | 4.0 | 0.00 | 0.38 | 0.01 | 100 | 1016.9 |
| 20260902123004 | 70 | 109 | 2.0 | 4.0 | 0.00 | 0.38 | 0.01 | 100 | 1017.0 |
| 20260902122800 | 70 | 62 | 0.0 | 4.0 | 0.00 | 0.38 | 0.01 | 100 | 1016.9 |
| 20260902122600 | 70 | 63 | 0.0 | 4.0 | 0.00 | 0.38 | 0.01 | 100 | 1016.9 |
| 20260902122501 | 70 | 63 | 1.0 | 4.0 | 0.00 | 0.38 | 0.01 | 100 | 1017.0 |
| 20260902122359 | 70 | 62 | 1.0 | 4.0 | 0.00 | 0.38 | 0.01 | 100 | 1016.9 |
| 20260902122300 | 70 | 63 | 0.0 | 4.0 | 0.00 | 0.38 | 0.01 | 100 | 1016.9 |
| 20260902122200 | 70 | 133 | 1.0 | 4.0 | 0.00 | 0.38 | 0.01 | 100 | 1016.9 |
| 20260902122059 | 70 | 147 | 2.0 | 4.0 | 0.00 | 0.38 | 0.01 | 100 | 1016.8 |
| 20260902122001 | 70 | 252 | 2.0 | 4.0 | 0.00 | 0.38 | 0.01 | 100 | 1016.9 |
| 20260902121900 | 70 | 97 | 1.0 | 3.0 | 0.00 | 0.38 | 0.01 | 100 | 1016.9 |
| 20260902121800 | 70 | 96 | 1.0 | 3.0 | 0.00 | 0.38 | 0.01 | 100 | 1016.9 |
| 20260902121658 | 70 | 96 | 2.0 | 5.0 | 0.00 | 0.38 | 0.01 | 100 | 1016.9 |
| 20260902121600 | 70 | 161 | 2.0 | 5.0 | 0.00 | 0.38 | 0.01 | 100 | 1017.0 |
| 20260902121503 | 69 | 118 | 0.0 | 5.0 | 0.00 | 0.38 | 0.01 | 100 | 1017.0 |
| 20260902121400 | 69 | 118 | 0.0 | 5.0 | 0.00 | 0.38 | 0.01 | 100 | 1017.0 |
| 20260902121259 | 69 | 119 | 2.0 | 5.0 | 0.00 | 0.38 | 0.01 | 100 | 1017.0 |
| 20260902121058 | 69 | 101 | 3.0 | 5.0 | 0.00 | 0.38 | 0.01 | 99 | 1017.0 |
| 20260902121004 | 69 | 93 | 1.0 | 5.0 | 0.00 | 0.38 | 0.01 | 99 | 1016.9 |
| 20260902120900 | 69 | 192 | 1.0 | 5.0 | 0.00 | 0.38 | 0.01 | 99 | 1017.0 |
| 20260902120759 | 69 | 148 | 4.0 | 4.0 | 0.00 | 0.38 | 0.01 | 100 | 1017.0 |
| 20260902120559 | 69 | 86 | 1.0 | 4.0 | 0.00 | 0.38 | 0.01 | 99 | 1017.0 |
| 20260902120503 | 69 | 96 | 1.0 | 4.0 | 0.00 | 0.38 | 0.01 | 99 | 1017.0 |
| 20260902120400 | 69 | 96 | 0.0 | 4.0 | 0.00 | 0.38 | 0.01 | 99 | 1017.0 |
| 20260902120300 | 69 | 96 | 1.0 | 4.0 | 0.00 | 0.38 | 0.01 | 99 | 1017.0 |
| 20260902120159 | 69 | 173 | 1.0 | 4.0 | 0.00 | 0.38 | 0.01 | 99 | 1017.1 |
| 20260902120100 | 69 | 173 | 0.0 | 4.0 | 0.00 | 0.38 | 0.01 | 99 | 1017.1 |
| 20260902120001 | 69 | 173 | 0.0 | 4.0 | 0.00 | 0.38 | 0.01 | 99 | 1017.1 |
| 20260902115859 | 69 | 173 | 1.0 | 4.0 | 0.00 | 0.38 | 0.01 | 100 | 1017.1 |
| 20260902115759 | 69 | 171 | 1.0 | 4.0 | 0.00 | 0.38 | 0.01 | 100 | 1017.1 |
| 20260902115600 | 69 | 99 | 2.0 | 4.0 | 0.00 | 0.38 | 0.01 | 100 | 1017.1 |
| 20260902115501 | 69 | 101 | 2.0 | 4.0 | 0.00 | 0.38 | 0.01 | 100 | 1017.0 |
| 20260902115357 | 69 | 101 | 0.0 | 4.0 | 0.00 | 0.38 | 0.01 | 99 | 1017.0 |
| 20260902115300 | 69 | 101 | 1.0 | 4.0 | 0.00 | 0.38 | 0.01 | 100 | 1017.0 |
| 20260902115158 | 69 | 101 | 2.0 | 4.0 | 0.00 | 0.38 | 0.01 | 99 | 1017.0 |
| 20260902115101 | 69 | 79 | 0.0 | 4.0 | 0.00 | 0.38 | 0.01 | 99 | 1017.0 |
| 20260902115000 | 69 | 78 | 0.0 | 4.0 | 0.00 | 0.38 | 0.01 | 99 | 1017.0 |
| 20260902114859 | 69 | 78 | 0.0 | 4.0 | 0.00 | 0.38 | 0.01 | 99 | 1017.0 |
| 20260902114759 | 69 | 78 | 0.0 | 4.0 | 0.00 | 0.38 | 0.01 | 99 | 1017.0 |
| 20260902114659 | 69 | 78 | 1.0 | 4.0 | 0.00 | 0.38 | 0.01 | 99 | 1017.0 |
| 20260902114559 | 69 | 78 | 3.0 | 4.0 | 0.00 | 0.38 | 0.01 | 99 | 1016.9 |
| 20260902114503 | 69 | 78 | 2.0 | 4.0 | 0.00 | 0.38 | 0.01 | 99 | 1016.9 |
| 20260902114359 | 69 | 78 | 2.0 | 4.0 | 0.00 | 0.38 | 0.01 | 99 | 1016.9 |
| 20260902114259 | 69 | 85 | 0.0 | 3.0 | 0.00 | 0.38 | 0.01 | 99 | 1016.9 |
| 20260902114158 | 69 | 85 | 1.0 | 3.0 | 0.00 | 0.38 | 0.01 | 99 | 1016.9 |
| 20260902114058 | 69 | 85 | 1.0 | 3.0 | 0.00 | 0.38 | 0.01 | 99 | 1016.9 |
| 20260902114000 | 69 | 84 | 1.0 | 3.0 | 0.00 | 0.38 | 0.01 | 99 | 1016.9 |
| 20260902113858 | 69 | 84 | 0.0 | 3.0 | 0.00 | 0.38 | 0.01 | 99 | 1016.9 |
| 20260902113657 | 69 | 85 | 0.0 | 3.0 | 0.00 | 0.38 | 0.01 | 100 | 1016.8 |
| 20260902113559 | 69 | 91 | 1.0 | 3.0 | 0.00 | 0.38 | 0.01 | 100 | 1016.8 |
| 20260902113459 | 69 | 95 | 1.0 | 4.0 | 0.00 | 0.38 | 0.01 | 100 | 1016.8 |
| 20260902113400 | 69 | 140 | 0.0 | 4.0 | 0.00 | 0.38 | 0.01 | 100 | 1016.7 |
| 20260902113259 | 69 | 140 | 1.0 | 4.0 | 0.00 | 0.38 | 0.01 | 100 | 1016.6 |
| 20260902112959 | 69 | 139 | 1.0 | 4.0 | 0.00 | 0.38 | 0.01 | 100 | 1016.6 |
| 20260902112900 | 69 | 90 | 0.0 | 4.0 | 0.00 | 0.38 | 0.01 | 100 | 1016.6 |
| 20260902112758 | 69 | 90 | 0.0 | 4.0 | 0.00 | 0.38 | 0.01 | 100 | 1016.5 |
| 20260902112659 | 69 | 90 | 0.0 | 4.0 | 0.00 | 0.38 | 0.01 | 100 | 1016.6 |
| 20260902112558 | 69 | 90 | 3.0 | 4.0 | 0.00 | 0.38 | 0.01 | 100 | 1016.7 |
| 20260902112500 | 69 | 96 | 0.0 | 4.0 | 0.00 | 0.38 | 0.01 | 100 | 1016.6 |
| 20260902112358 | 69 | 96 | 2.0 | 4.0 | 0.00 | 0.38 | 0.01 | 100 | 1016.7 |
| 20260902112258 | 69 | 96 | 2.0 | 4.0 | 0.00 | 0.38 | 0.01 | 100 | 1016.6 |
| 20260902112158 | 69 | 96 | 0.0 | 4.0 | 0.00 | 0.38 | 0.01 | 100 | 1016.6 |
| 20260902112100 | 69 | 96 | 2.0 | 4.0 | 0.00 | 0.38 | 0.01 | 100 | 1016.6 |
| 20260902112000 | 69 | 98 | 3.0 | 4.0 | 0.00 | 0.38 | 0.01 | 100 | 1016.6 |
| 20260902111859 | 69 | 113 | 0.0 | 3.0 | 0.00 | 0.38 | 0.01 | 100 | 1016.5 |
| 20260902111658 | 69 | 113 | 1.0 | 2.0 | 0.00 | 0.38 | 0.01 | 100 | 1016.5 |
| 20260902111558 | 69 | 113 | 1.0 | 2.0 | 0.00 | 0.38 | 0.01 | 100 | 1016.5 |
| 20260902111359 | 69 | 113 | 0.0 | 1.0 | 0.00 | 0.38 | 0.01 | 100 | 1016.5 |
| 20260902111300 | 69 | 113 | 0.0 | 1.0 | 0.00 | 0.38 | 0.01 | 100 | 1016.5 |
| 20260902111158 | 69 | 113 | 0.0 | 1.0 | 0.00 | 0.38 | 0.01 | 99 | 1016.6 |
| 20260902111059 | 69 | 113 | 0.0 | 1.0 | 0.00 | 0.38 | 0.01 | 99 | 1016.6 |
| 20260902110959 | 69 | 113 | 0.0 | 1.0 | 0.00 | 0.38 | 0.01 | 99 | 1016.6 |
| 20260902110858 | 69 | 113 | 0.0 | 1.0 | 0.00 | 0.38 | 0.01 | 99 | 1016.6 |
| 20260902110702 | 69 | 113 | 0.0 | 1.0 | 0.00 | 0.38 | 0.01 | 99 | 1016.7 |
| 20260902110558 | 69 | 113 | 0.0 | 1.0 | 0.00 | 0.38 | 0.01 | 99 | 1016.6 |
| 20260902110501 | 69 | 113 | 0.0 | 1.0 | 0.00 | 0.38 | 0.01 | 99 | 1016.7 |
| 20260902110359 | 69 | 113 | 0.0 | 1.0 | 0.00 | 0.38 | 0.01 | 99 | 1016.6 |
| 20260902110258 | 69 | 113 | 0.0 | 2.0 | 0.00 | 0.38 | 0.01 | 99 | 1016.6 |
| 20260902110159 | 69 | 113 | 0.0 | 2.0 | 0.00 | 0.38 | 0.01 | 99 | 1016.6 |
| 20260902105858 | 69 | 113 | 0.0 | 4.0 | 0.00 | 0.38 | 0.01 | 99 | 1016.7 |
| 20260902105758 | 69 | 113 | 0.0 | 4.0 | 0.00 | 0.38 | 0.01 | 99 | 1016.7 |
| 20260902105658 | 69 | 113 | 0.0 | 4.0 | 0.00 | 0.38 | 0.01 | 99 | 1016.7 |
| 20260902105558 | 69 | 113 | 0.0 | 4.0 | 0.00 | 0.38 | 0.01 | 99 | 1016.7 |
| 20260902105500 | 69 | 113 | 0.0 | 4.0 | 0.00 | 0.38 | 0.01 | 99 | 1016.7 |
| 20260902105359 | 69 | 113 | 1.0 | 4.0 | 0.00 | 0.38 | 0.01 | 99 | 1016.7 |
| 20260902105259 | 69 | 113 | 0.0 | 4.0 | 0.00 | 0.38 | 0.01 | 99 | 1016.7 |
| 20260902105158 | 69 | 113 | 0.0 | 4.0 | 0.00 | 0.38 | 0.01 | 99 | 1016.6 |
| 20260902105059 | 69 | 113 | 1.0 | 4.0 | 0.00 | 0.38 | 0.01 | 99 | 1016.6 |
| 20260902104959 | 68 | 113 | 0.0 | 4.0 | 0.00 | 0.38 | 0.01 | 99 | 1016.6 |
| 20260902104758 | 68 | 113 | 0.0 | 0.0 | 0.00 | 0.38 | 0.01 | 99 | 1016.6 |
| 20260902104658 | 68 | 113 | 0.0 | 0.0 | 0.00 | 0.38 | 0.01 | 99 | 1016.6 |
| 20260902104558 | 68 | 113 | 0.0 | 1.0 | 0.00 | 0.38 | 0.01 | 99 | 1016.6 |
| 20260902104500 | 68 | 113 | 0.0 | 2.0 | 0.00 | 0.38 | 0.01 | 99 | 1016.6 |
| 20260902104158 | 68 | 113 | 0.0 | 2.0 | 0.00 | 0.38 | 0.01 | 99 | 1016.6 |
| 20260902104100 | 68 | 113 | 0.0 | 2.0 | 0.00 | 0.38 | 0.01 | 99 | 1016.7 |
| 20260902103959 | 68 | 113 | 0.0 | 2.0 | 0.00 | 0.38 | 0.01 | 99 | 1016.7 |
| 20260902103858 | 68 | 113 | 0.0 | 2.0 | 0.00 | 0.38 | 0.01 | 99 | 1016.7 |
| 20260902103758 | 68 | 113 | 0.0 | 2.0 | 0.00 | 0.38 | 0.01 | 99 | 1016.7 |
| 20260902103659 | 68 | 113 | 0.0 | 2.0 | 0.00 | 0.38 | 0.01 | 99 | 1016.7 |
| 20260902103558 | 68 | 113 | 1.0 | 2.0 | 0.00 | 0.38 | 0.01 | 99 | 1016.7 |
| 20260902103501 | 68 | 113 | 1.0 | 2.0 | 0.00 | 0.38 | 0.01 | 99 | 1016.6 |
| 20260902103358 | 68 | 113 | 0.0 | 2.0 | 0.00 | 0.38 | 0.01 | 99 | 1016.7 |
| 20260902103257 | 68 | 113 | 0.0 | 2.0 | 0.00 | 0.38 | 0.01 | 99 | 1016.7 |
| 20260902103200 | 68 | 113 | 1.0 | 2.0 | 0.00 | 0.38 | 0.01 | 99 | 1016.6 |
| 20260902103057 | 68 | 113 | 1.0 | 2.0 | 0.00 | 0.38 | 0.01 | 99 | 1016.6 |
| 20260902103000 | 68 | 121 | 0.0 | 0.0 | 0.00 | 0.38 | 0.01 | 99 | 1016.7 |
| 20260902102859 | 68 | 121 | 0.0 | 0.0 | 0.00 | 0.38 | 0.01 | 99 | 1016.7 |
| 20260902102758 | 68 | 121 | 0.0 | 0.0 | 0.00 | 0.38 | 0.01 | 99 | 1016.7 |
| 20260902102659 | 68 | 121 | 0.0 | 0.0 | 0.00 | 0.38 | 0.01 | 99 | 1016.7 |
| 20260902102558 | 68 | 121 | 0.0 | 0.0 | 0.00 | 0.38 | 0.01 | 99 | 1016.8 |
| 20260902102500 | 68 | 121 | 0.0 | 0.0 | 0.00 | 0.38 | 0.01 | 99 | 1016.8 |
| 20260902102358 | 68 | 121 | 0.0 | 0.0 | 0.00 | 0.38 | 0.01 | 99 | 1016.8 |
| 20260902102258 | 68 | 121 | 0.0 | 0.0 | 0.00 | 0.38 | 0.01 | 99 | 1016.8 |
| 20260902102158 | 68 | 121 | 0.0 | 0.0 | 0.00 | 0.38 | 0.01 | 99 | 1016.8 |
| 20260902101858 | 68 | 121 | 0.0 | 2.0 | 0.00 | 0.38 | 0.01 | 99 | 1016.8 |
| 20260902101758 | 68 | 121 | 0.0 | 2.0 | 0.00 | 0.38 | 0.01 | 99 | 1016.8 |
| 20260902101559 | 68 | 121 | 0.0 | 2.0 | 0.00 | 0.38 | 0.01 | 99 | 1016.8 |
| 20260902101500 | 68 | 121 | 0.0 | 2.0 | 0.00 | 0.38 | 0.01 | 99 | 1016.8 |
| 20260902101358 | 68 | 121 | 0.0 | 2.0 | 0.00 | 0.38 | 0.01 | 99 | 1016.8 |
| 20260902101259 | 68 | 121 | 0.0 | 2.0 | 0.00 | 0.38 | 0.01 | 99 | 1016.8 |
| 20260902101158 | 68 | 121 | 0.0 | 2.0 | 0.00 | 0.38 | 0.01 | 99 | 1016.8 |
| 20260902101059 | 68 | 121 | 0.0 | 2.0 | 0.00 | 0.38 | 0.01 | 99 | 1016.8 |
| 20260902100958 | 68 | 121 | 0.0 | 2.0 | 0.00 | 0.38 | 0.01 | 99 | 1016.8 |
| 20260902100859 | 68 | 121 | 0.0 | 0.0 | 0.00 | 0.38 | 0.01 | 99 | 1016.8 |
| 20260902100759 | 68 | 121 | 0.0 | 0.0 | 0.00 | 0.38 | 0.01 | 99 | 1016.8 |
| 20260902100600 | 68 | 121 | 0.0 | 0.0 | 0.00 | 0.38 | 0.01 | 99 | 1016.8 |
| 20260902100500 | 68 | 121 | 0.0 | 0.0 | 0.00 | 0.38 | 0.01 | 99 | 1016.8 |
| 20260902100159 | 68 | 121 | 0.0 | 0.0 | 0.00 | 0.38 | 0.01 | 99 | 1016.8 |
| 20260902100058 | 68 | 121 | 0.0 | 0.0 | 0.00 | 0.38 | 0.01 | 99 | 1016.8 |
| 20260902100003 | 68 | 121 | 0.0 | 0.0 | 0.00 | 0.38 | 0.01 | 99 | 1016.8 |
| 20260902095758 | 68 | 121 | 0.0 | 0.0 | 0.00 | 0.38 | 0.01 | 99 | 1016.8 |
| 20260902095559 | 68 | 121 | 0.0 | 0.0 | 0.00 | 0.38 | 0.01 | 99 | 1016.8 |
| 20260902095359 | 68 | 121 | 0.0 | 0.0 | 0.00 | 0.38 | 0.01 | 99 | 1016.8 |
| 20260902095200 | 68 | 121 | 0.0 | 0.0 | 0.00 | 0.38 | 0.01 | 99 | 1016.8 |
| 20260902095100 | 68 | 121 | 0.0 | 0.0 | 0.00 | 0.38 | 0.01 | 99 | 1016.8 |
| 20260902094900 | 68 | 121 | 0.0 | 0.0 | 0.00 | 0.38 | 0.01 | 99 | 1016.8 |
| 20260902094800 | 68 | 121 | 0.0 | 0.0 | 0.00 | 0.38 | 0.01 | 99 | 1016.8 |
| 20260902094700 | 68 | 121 | 0.0 | 0.0 | 0.00 | 0.38 | 0.01 | 99 | 1016.8 |
| 20260902094504 | 68 | 121 | 0.0 | 0.0 | 0.00 | 0.38 | 0.01 | 99 | 1016.9 |
| 20260902094400 | 68 | 121 | 0.0 | 0.0 | 0.00 | 0.38 | 0.01 | 99 | 1016.9 |
| 20260902094258 | 68 | 121 | 0.0 | 0.0 | 0.00 | 0.38 | 0.01 | 99 | 1016.8 |
| 20260902094159 | 68 | 121 | 0.0 | 0.0 | 0.00 | 0.38 | 0.01 | 99 | 1016.8 |
| 20260902094100 | 68 | 121 | 0.0 | 0.0 | 0.00 | 0.38 | 0.01 | 99 | 1016.8 |
| 20260902094002 | 68 | 121 | 0.0 | 0.0 | 0.00 | 0.38 | 0.01 | 99 | 1016.9 |
| 20260902093859 | 68 | 121 | 0.0 | 0.0 | 0.00 | 0.38 | 0.01 | 99 | 1016.8 |
| 20260902093800 | 68 | 121 | 0.0 | 0.0 | 0.00 | 0.38 | 0.01 | 99 | 1016.8 |
| 20260902093600 | 68 | 121 | 0.0 | 0.0 | 0.00 | 0.38 | 0.01 | 99 | 1016.8 |
| 20260902093503 | 68 | 121 | 0.0 | 0.0 | 0.00 | 0.38 | 0.01 | 99 | 1016.8 |
| 20260902093359 | 68 | 121 | 0.0 | 0.0 | 0.00 | 0.38 | 0.01 | 99 | 1016.8 |
| 20260902093259 | 68 | 121 | 0.0 | 0.0 | 0.00 | 0.38 | 0.01 | 99 | 1016.8 |
| 20260902093159 | 68 | 121 | 0.0 | 0.0 | 0.00 | 0.38 | 0.01 | 99 | 1016.7 |
| 20260902093100 | 68 | 121 | 0.0 | 0.0 | 0.00 | 0.38 | 0.01 | 99 | 1016.7 |
| 20260902092858 | 68 | 121 | 0.0 | 0.0 | 0.00 | 0.38 | 0.01 | 99 | 1016.7 |
| 20260902092759 | 68 | 121 | 0.0 | 0.0 | 0.00 | 0.38 | 0.01 | 99 | 1016.7 |
| 20260902092700 | 68 | 121 | 0.0 | 0.0 | 0.00 | 0.38 | 0.01 | 99 | 1016.6 |
| 20260902092558 | 69 | 121 | 0.0 | 0.0 | 0.00 | 0.38 | 0.01 | 99 | 1016.6 |
| 20260902092500 | 69 | 121 | 0.0 | 0.0 | 0.00 | 0.38 | 0.01 | 99 | 1016.6 |
| 20260902092357 | 69 | 121 | 0.0 | 0.0 | 0.00 | 0.38 | 0.01 | 99 | 1016.6 |
| 20260902092159 | 69 | 121 | 0.0 | 0.0 | 0.00 | 0.38 | 0.01 | 99 | 1016.6 |
| 20260902092058 | 69 | 121 | 0.0 | 0.0 | 0.00 | 0.38 | 0.01 | 99 | 1016.6 |
| 20260902092000 | 69 | 121 | 0.0 | 0.0 | 0.00 | 0.38 | 0.01 | 99 | 1016.6 |
| 20260902091901 | 69 | 121 | 0.0 | 0.0 | 0.00 | 0.38 | 0.01 | 99 | 1016.5 |
| 20260902091758 | 69 | 121 | 0.0 | 0.0 | 0.00 | 0.38 | 0.01 | 99 | 1016.5 |
| 20260902091700 | 69 | 121 | 0.0 | 0.0 | 0.00 | 0.38 | 0.01 | 99 | 1016.5 |
| 20260902091558 | 69 | 121 | 0.0 | 0.0 | 0.00 | 0.38 | 0.01 | 99 | 1016.5 |
| 20260902091400 | 69 | 121 | 0.0 | 0.0 | 0.00 | 0.38 | 0.01 | 99 | 1016.5 |
| 20260902091258 | 69 | 121 | 0.0 | 0.0 | 0.00 | 0.38 | 0.01 | 99 | 1016.5 |
| 20260902091158 | 69 | 121 | 0.0 | 0.0 | 0.00 | 0.38 | 0.01 | 99 | 1016.4 |
| 20260902091057 | 69 | 121 | 0.0 | 0.0 | 0.00 | 0.38 | 0.01 | 99 | 1016.4 |
| 20260902090959 | 69 | 121 | 0.0 | 0.0 | 0.00 | 0.38 | 0.01 | 99 | 1016.4 |
| 20260902090858 | 69 | 121 | 0.0 | 0.0 | 0.01 | 0.38 | 0.01 | 99 | 1016.4 |
| 20260902090759 | 69 | 121 | 0.0 | 0.0 | 0.01 | 0.38 | 0.01 | 99 | 1016.4 |
| 20260902090658 | 69 | 121 | 0.0 | 0.0 | 0.01 | 0.38 | 0.01 | 99 | 1016.4 |
| 20260902090559 | 69 | 121 | 0.0 | 0.0 | 0.01 | 0.38 | 0.01 | 99 | 1016.4 |
| 20260902090500 | 69 | 121 | 0.0 | 0.0 | 0.01 | 0.38 | 0.01 | 99 | 1016.4 |
| 20260902090358 | 69 | 121 | 0.0 | 0.0 | 0.01 | 0.38 | 0.01 | 99 | 1016.3 |
| 20260902090258 | 69 | 121 | 0.0 | 0.0 | 0.01 | 0.38 | 0.01 | 99 | 1016.3 |
| 20260902090158 | 69 | 121 | 0.0 | 0.0 | 0.01 | 0.38 | 0.01 | 99 | 1016.3 |
| 20260902090058 | 69 | 121 | 0.0 | 0.0 | 0.01 | 0.38 | 0.01 | 99 | 1016.3 |
| 20260902090001 | 69 | 121 | 0.0 | 0.0 | 0.01 | 0.38 | 0.01 | 99 | 1016.3 |
| 20260902085858 | 69 | 121 | 0.0 | 0.0 | 0.01 | 0.38 | 0.01 | 99 | 1016.3 |
| 20260902085758 | 69 | 121 | 0.0 | 0.0 | 0.01 | 0.38 | 0.01 | 99 | 1016.3 |
| 20260902085658 | 69 | 121 | 0.0 | 0.0 | 0.01 | 0.38 | 0.01 | 99 | 1016.3 |
| 20260902085558 | 69 | 121 | 0.0 | 0.0 | 0.01 | 0.38 | 0.01 | 99 | 1016.3 |
| 20260902085459 | 69 | 121 | 0.0 | 0.0 | 0.01 | 0.38 | 0.01 | 99 | 1016.3 |
| 20260902085358 | 69 | 121 | 0.0 | 0.0 | 0.01 | 0.38 | 0.01 | 99 | 1016.3 |
| 20260902085258 | 69 | 121 | 0.0 | 0.0 | 0.01 | 0.38 | 0.01 | 99 | 1016.3 |
| 20260902085159 | 69 | 121 | 0.0 | 0.0 | 0.01 | 0.38 | 0.01 | 99 | 1016.3 |
| 20260902085059 | 69 | 121 | 0.0 | 0.0 | 0.01 | 0.38 | 0.01 | 99 | 1016.3 |
| 20260902085000 | 69 | 121 | 0.0 | 0.0 | 0.01 | 0.38 | 0.01 | 99 | 1016.3 |
| 20260902084859 | 69 | 121 | 0.0 | 0.0 | 0.01 | 0.38 | 0.01 | 99 | 1016.3 |
| 20260902084759 | 69 | 121 | 0.0 | 0.0 | 0.01 | 0.38 | 0.01 | 99 | 1016.3 |
| 20260902084657 | 69 | 121 | 0.0 | 1.0 | 0.01 | 0.38 | 0.01 | 99 | 1016.2 |
| 20260902084559 | 69 | 121 | 0.0 | 1.0 | 0.01 | 0.38 | 0.01 | 99 | 1016.2 |
| 20260902084500 | 69 | 121 | 0.0 | 1.0 | 0.01 | 0.38 | 0.01 | 99 | 1016.2 |
| 20260902084358 | 69 | 121 | 0.0 | 1.0 | 0.01 | 0.38 | 0.01 | 99 | 1016.2 |
| 20260902084258 | 69 | 121 | 0.0 | 1.0 | 0.01 | 0.38 | 0.01 | 99 | 1016.2 |
| 20260902084159 | 69 | 121 | 0.0 | 1.0 | 0.01 | 0.38 | 0.01 | 99 | 1016.3 |
| 20260902084058 | 69 | 121 | 0.0 | 1.0 | 0.01 | 0.38 | 0.01 | 99 | 1016.2 |
| 20260902084000 | 69 | 121 | 0.0 | 1.0 | 0.01 | 0.38 | 0.01 | 99 | 1016.2 |
| 20260902083858 | 69 | 121 | 0.0 | 1.0 | 0.01 | 0.38 | 0.01 | 99 | 1016.2 |
| 20260902083758 | 69 | 121 | 0.0 | 1.0 | 0.01 | 0.38 | 0.01 | 99 | 1016.2 |
| 20260902083658 | 69 | 121 | 0.0 | 1.0 | 0.01 | 0.38 | 0.01 | 99 | 1016.1 |
| 20260902083558 | 69 | 121 | 0.0 | 1.0 | 0.01 | 0.38 | 0.01 | 99 | 1016.1 |
| 20260902083459 | 69 | 121 | 0.0 | 2.0 | 0.01 | 0.38 | 0.01 | 99 | 1016.1 |
| 20260902083358 | 69 | 121 | 0.0 | 2.0 | 0.01 | 0.38 | 0.01 | 99 | 1016.1 |
| 20260902083258 | 69 | 121 | 0.0 | 2.0 | 0.01 | 0.38 | 0.01 | 99 | 1016.1 |
| 20260902083158 | 69 | 121 | 0.0 | 2.0 | 0.01 | 0.38 | 0.01 | 99 | 1016.1 |
| 20260902083059 | 69 | 121 | 0.0 | 2.0 | 0.01 | 0.38 | 0.01 | 99 | 1016.1 |
| 20260902082959 | 69 | 121 | 0.0 | 2.0 | 0.01 | 0.38 | 0.01 | 99 | 1016.1 |
| 20260902082859 | 69 | 121 | 0.0 | 2.0 | 0.01 | 0.38 | 0.01 | 99 | 1016.1 |
| 20260902082759 | 69 | 121 | 0.0 | 2.0 | 0.01 | 0.38 | 0.01 | 99 | 1016.1 |
| 20260902082700 | 69 | 121 | 0.0 | 2.0 | 0.01 | 0.38 | 0.01 | 99 | 1016.0 |
| 20260902082558 | 69 | 121 | 1.0 | 2.0 | 0.01 | 0.38 | 0.01 | 99 | 1016.0 |
| 20260902082459 | 69 | 121 | 0.0 | 2.0 | 0.01 | 0.38 | 0.01 | 99 | 1016.0 |
| 20260902082358 | 69 | 121 | 0.0 | 2.0 | 0.01 | 0.38 | 0.01 | 99 | 1016.0 |
| 20260902082258 | 69 | 121 | 0.0 | 2.0 | 0.01 | 0.38 | 0.01 | 99 | 1015.9 |
| 20260902082158 | 69 | 121 | 0.0 | 2.0 | 0.01 | 0.38 | 0.01 | 99 | 1015.9 |
| 20260902082059 | 69 | 121 | 0.0 | 2.0 | 0.01 | 0.38 | 0.01 | 99 | 1015.9 |
| 20260902081857 | 69 | 121 | 0.0 | 2.0 | 0.01 | 0.38 | 0.01 | 99 | 1015.9 |
| 20260902081758 | 69 | 121 | 0.0 | 2.0 | 0.01 | 0.38 | 0.01 | 99 | 1015.9 |
| 20260902081558 | 69 | 121 | 2.0 | 2.0 | 0.01 | 0.38 | 0.01 | 99 | 1015.9 |
| 20260902081500 | 69 | 160 | 0.0 | 0.0 | 0.01 | 0.38 | 0.01 | 99 | 1016.0 |
| 20260902081359 | 69 | 160 | 0.0 | 0.0 | 0.01 | 0.38 | 0.01 | 99 | 1016.0 |
| 20260902081258 | 69 | 160 | 0.0 | 0.0 | 0.01 | 0.38 | 0.01 | 99 | 1016.0 |
| 20260902081158 | 69 | 160 | 0.0 | 0.0 | 0.01 | 0.38 | 0.01 | 99 | 1016.0 |
| 20260902081059 | 69 | 160 | 0.0 | 0.0 | 0.01 | 0.38 | 0.01 | 99 | 1016.0 |
| 20260902080959 | 69 | 160 | 0.0 | 0.0 | 0.01 | 0.38 | 0.01 | 99 | 1016.0 |
| 20260902080658 | 69 | 160 | 0.0 | 0.0 | 0.00 | 0.37 | 0.00 | 99 | 1016.0 |
| 20260902080459 | 69 | 160 | 0.0 | 0.0 | 0.00 | 0.37 | 0.00 | 99 | 1016.0 |
| 20260902080358 | 69 | 160 | 0.0 | 0.0 | 0.00 | 0.37 | 0.00 | 99 | 1016.0 |
| 20260902080258 | 69 | 160 | 0.0 | 0.0 | 0.00 | 0.37 | 0.00 | 99 | 1016.0 |
| 20260902080159 | 69 | 160 | 0.0 | 0.0 | 0.00 | 0.37 | 0.00 | 99 | 1016.0 |
| 20260902080059 | 69 | 160 | 0.0 | 0.0 | 0.00 | 0.37 | 0.00 | 99 | 1016.1 |
| 20260902075859 | 70 | 160 | 0.0 | 0.0 | 0.00 | 0.37 | 0.00 | 99 | 1016.1 |
| 20260902075758 | 70 | 160 | 0.0 | 0.0 | 0.00 | 0.37 | 0.00 | 99 | 1016.1 |
| 20260902075701 | 70 | 160 | 0.0 | 0.0 | 0.00 | 0.37 | 0.00 | 99 | 1016.1 |
| 20260902075558 | 70 | 160 | 0.0 | 0.0 | 0.00 | 0.37 | 0.00 | 99 | 1016.1 |
| 20260902075400 | 70 | 160 | 0.0 | 0.0 | 0.00 | 0.37 | 0.00 | 99 | 1016.1 |
| 20260902075258 | 70 | 160 | 0.0 | 0.0 | 0.00 | 0.37 | 0.00 | 99 | 1016.0 |
| 20260902075157 | 70 | 160 | 0.0 | 0.0 | 0.00 | 0.37 | 0.00 | 99 | 1016.0 |
| 20260902075057 | 70 | 160 | 0.0 | 0.0 | 0.00 | 0.37 | 0.00 | 99 | 1015.9 |
| 20260902075003 | 70 | 160 | 0.0 | 0.0 | 0.00 | 0.37 | 0.00 | 99 | 1015.9 |
| 20260902074857 | 70 | 160 | 0.0 | 0.0 | 0.00 | 0.37 | 0.00 | 99 | 1015.9 |
| 20260902074759 | 70 | 160 | 0.0 | 0.0 | 0.00 | 0.37 | 0.00 | 99 | 1015.9 |
| 20260902074657 | 70 | 160 | 0.0 | 0.0 | 0.00 | 0.37 | 0.00 | 99 | 1015.9 |
| 20260902074559 | 70 | 160 | 0.0 | 0.0 | 0.00 | 0.37 | 0.00 | 99 | 1015.9 |
| 20260902074459 | 70 | 160 | 0.0 | 0.0 | 0.00 | 0.37 | 0.00 | 99 | 1015.9 |
| 20260902074357 | 70 | 160 | 0.0 | 0.0 | 0.00 | 0.37 | 0.00 | 99 | 1015.9 |
| 20260902074258 | 70 | 160 | 0.0 | 0.0 | 0.00 | 0.37 | 0.00 | 99 | 1015.9 |
| 20260902074158 | 70 | 160 | 0.0 | 0.0 | 0.00 | 0.37 | 0.00 | 99 | 1015.9 |
| 20260902074059 | 70 | 160 | 0.0 | 0.0 | 0.00 | 0.37 | 0.00 | 99 | 1015.8 |
| 20260902074000 | 70 | 160 | 0.0 | 0.0 | 0.00 | 0.37 | 0.00 | 99 | 1015.8 |
| 20260902073859 | 70 | 160 | 0.0 | 0.0 | 0.00 | 0.37 | 0.00 | 99 | 1015.7 |
| 20260902073758 | 70 | 160 | 0.0 | 0.0 | 0.00 | 0.37 | 0.00 | 99 | 1015.8 |
| 20260902073600 | 70 | 160 | 0.0 | 0.0 | 0.00 | 0.37 | 0.00 | 99 | 1015.7 |
| 20260902073503 | 70 | 160 | 0.0 | 0.0 | 0.00 | 0.37 | 0.00 | 99 | 1015.8 |
| 20260902073358 | 70 | 160 | 0.0 | 0.0 | 0.00 | 0.37 | 0.00 | 99 | 1015.8 |
| 20260902073259 | 70 | 160 | 0.0 | 0.0 | 0.00 | 0.37 | 0.00 | 99 | 1015.8 |
| 20260902073158 | 70 | 160 | 0.0 | 0.0 | 0.00 | 0.37 | 0.00 | 99 | 1015.8 |
| 20260902073058 | 70 | 160 | 0.0 | 0.0 | 0.00 | 0.37 | 0.00 | 99 | 1015.9 |
| 20260902073000 | 70 | 160 | 0.0 | 0.0 | 0.00 | 0.37 | 0.00 | 99 | 1015.9 |
| 20260902072858 | 70 | 160 | 0.0 | 0.0 | 0.00 | 0.37 | 0.00 | 99 | 1015.9 |
| 20260902072758 | 70 | 160 | 0.0 | 0.0 | 0.00 | 0.37 | 0.00 | 99 | 1015.8 |
| 20260902072658 | 70 | 160 | 0.0 | 0.0 | 0.00 | 0.37 | 0.00 | 99 | 1015.9 |
| 20260902072558 | 70 | 160 | 0.0 | 0.0 | 0.00 | 0.37 | 0.00 | 99 | 1015.8 |
| 20260902072500 | 70 | 160 | 0.0 | 0.0 | 0.00 | 0.37 | 0.00 | 99 | 1015.9 |
| 20260902072259 | 70 | 160 | 0.0 | 0.0 | 0.00 | 0.37 | 0.00 | 99 | 1015.8 |
| 20260902072159 | 70 | 160 | 0.0 | 0.0 | 0.00 | 0.37 | 0.00 | 99 | 1015.8 |
| 20260902072000 | 70 | 160 | 0.0 | 0.0 | 0.00 | 0.37 | 0.00 | 99 | 1015.8 |
| 20260902071858 | 70 | 160 | 0.0 | 0.0 | 0.00 | 0.37 | 0.00 | 99 | 1015.8 |
| 20260902071758 | 70 | 160 | 0.0 | 0.0 | 0.00 | 0.37 | 0.00 | 99 | 1015.8 |
| 20260902071658 | 70 | 160 | 0.0 | 0.0 | 0.00 | 0.37 | 0.00 | 99 | 1015.8 |
| 20260902071558 | 70 | 160 | 0.0 | 0.0 | 0.00 | 0.37 | 0.00 | 99 | 1015.9 |
| 20260902071459 | 70 | 160 | 0.0 | 0.0 | 0.00 | 0.37 | 0.00 | 99 | 1015.8 |
| 20260902071358 | 70 | 160 | 0.0 | 0.0 | 0.00 | 0.37 | 0.00 | 99 | 1015.8 |
| 20260902071259 | 70 | 160 | 0.0 | 0.0 | 0.00 | 0.37 | 0.00 | 99 | 1015.8 |
| 20260902071158 | 70 | 160 | 0.0 | 0.0 | 0.00 | 0.37 | 0.00 | 99 | 1015.8 |
| 20260902071059 | 70 | 160 | 0.0 | 0.0 | 0.00 | 0.37 | 0.00 | 99 | 1015.7 |
| 20260902071000 | 70 | 160 | 0.0 | 0.0 | 0.00 | 0.37 | 0.00 | 99 | 1015.7 |
| 20260902070859 | 70 | 160 | 0.0 | 0.0 | 0.00 | 0.37 | 0.00 | 99 | 1015.7 |
| 20260902070758 | 70 | 160 | 0.0 | 0.0 | 0.00 | 0.37 | 0.00 | 99 | 1015.7 |
| 20260902070659 | 70 | 160 | 0.0 | 0.0 | 0.00 | 0.37 | 0.00 | 99 | 1015.7 |
| 20260902070459 | 70 | 160 | 0.0 | 0.0 | 0.00 | 0.37 | 0.00 | 99 | 1015.7 |
| 20260902070401 | 70 | 160 | 0.0 | 0.0 | 0.00 | 0.37 | 0.00 | 99 | 1015.7 |
| 20260902070159 | 70 | 160 | 0.0 | 0.0 | 0.00 | 0.37 | 0.00 | 99 | 1015.6 |
| 20260902070058 | 70 | 160 | 0.0 | 0.0 | 0.00 | 0.37 | 0.00 | 99 | 1015.7 |
| 20260902070003 | 70 | 160 | 0.0 | 0.0 | 0.00 | 0.37 | 0.00 | 99 | 1015.7 |
| 20260902065859 | 70 | 160 | 0.0 | 0.0 | 0.00 | 0.37 | 0.00 | 99 | 1015.6 |
| 20260902065759 | 70 | 160 | 0.0 | 0.0 | 0.00 | 0.37 | 0.00 | 99 | 1015.7 |
| 20260902065659 | 70 | 160 | 0.0 | 0.0 | 0.00 | 0.37 | 0.00 | 99 | 1015.6 |
| 20260902065600 | 70 | 160 | 0.0 | 0.0 | 0.00 | 0.37 | 0.00 | 99 | 1015.6 |
| 20260902065400 | 69 | 160 | 0.0 | 0.0 | 0.00 | 0.37 | 0.00 | 99 | 1015.6 |
| 20260902065259 | 69 | 160 | 0.0 | 0.0 | 0.00 | 0.37 | 0.00 | 99 | 1015.6 |
| 20260902065201 | 69 | 160 | 0.0 | 0.0 | 0.00 | 0.37 | 0.00 | 99 | 1015.6 |
| 20260902065059 | 69 | 160 | 0.0 | 0.0 | 0.00 | 0.37 | 0.00 | 98 | 1015.6 |
| 20260902065001 | 69 | 160 | 0.0 | 0.0 | 0.00 | 0.37 | 0.00 | 98 | 1015.6 |
| 20260902064759 | 69 | 160 | 0.0 | 0.0 | 0.00 | 0.37 | 0.00 | 98 | 1015.6 |
| 20260902064659 | 69 | 160 | 0.0 | 0.0 | 0.00 | 0.37 | 0.00 | 98 | 1015.6 |
| 20260902064504 | 69 | 160 | 0.0 | 0.0 | 0.00 | 0.37 | 0.00 | 98 | 1015.6 |
| 20260902064359 | 69 | 160 | 0.0 | 0.0 | 0.00 | 0.37 | 0.00 | 98 | 1015.7 |
| 20260902064259 | 69 | 160 | 0.0 | 0.0 | 0.00 | 0.37 | 0.00 | 98 | 1015.7 |
| 20260902064158 | 69 | 160 | 0.0 | 0.0 | 0.00 | 0.37 | 0.00 | 98 | 1015.7 |
| 20260902064100 | 69 | 160 | 0.0 | 0.0 | 0.00 | 0.37 | 0.00 | 98 | 1015.7 |
| 20260902064004 | 69 | 160 | 0.0 | 0.0 | 0.00 | 0.37 | 0.00 | 98 | 1015.7 |
| 20260902063900 | 69 | 160 | 0.0 | 0.0 | 0.00 | 0.37 | 0.00 | 98 | 1015.7 |
| 20260902063759 | 69 | 160 | 0.0 | 0.0 | 0.00 | 0.37 | 0.00 | 98 | 1015.8 |
| 20260902063659 | 69 | 160 | 0.0 | 0.0 | 0.00 | 0.37 | 0.00 | 98 | 1015.8 |
| 20260902063503 | 70 | 160 | 0.0 | 0.0 | 0.00 | 0.37 | 0.00 | 98 | 1015.9 |
| 20260902063359 | 70 | 160 | 0.0 | 0.0 | 0.00 | 0.37 | 0.00 | 98 | 1015.8 |
| 20260902063258 | 70 | 160 | 0.0 | 0.0 | 0.00 | 0.37 | 0.00 | 98 | 1015.8 |
| 20260902063159 | 70 | 160 | 0.0 | 0.0 | 0.00 | 0.37 | 0.00 | 98 | 1015.8 |
| 20260902063059 | 70 | 160 | 0.0 | 0.0 | 0.00 | 0.37 | 0.00 | 98 | 1015.8 |
| 20260902063003 | 70 | 160 | 0.0 | 0.0 | 0.00 | 0.37 | 0.00 | 98 | 1015.8 |
| 20260902062859 | 70 | 160 | 0.0 | 0.0 | 0.00 | 0.37 | 0.00 | 98 | 1015.8 |
| 20260902062759 | 70 | 160 | 0.0 | 0.0 | 0.00 | 0.37 | 0.00 | 98 | 1015.8 |
| 20260902062659 | 70 | 160 | 0.0 | 0.0 | 0.00 | 0.37 | 0.00 | 98 | 1015.8 |
| 20260902062503 | 70 | 160 | 0.0 | 0.0 | 0.00 | 0.37 | 0.00 | 98 | 1015.8 |
| 20260902062359 | 70 | 160 | 0.0 | 0.0 | 0.00 | 0.37 | 0.00 | 98 | 1015.8 |
| 20260902062259 | 70 | 160 | 0.0 | 0.0 | 0.00 | 0.37 | 0.00 | 98 | 1015.8 |
| 20260902062158 | 70 | 160 | 0.0 | 0.0 | 0.00 | 0.37 | 0.00 | 98 | 1015.8 |
| 20260902061859 | 70 | 160 | 0.0 | 0.0 | 0.00 | 0.37 | 0.00 | 98 | 1015.8 |
| 20260902061759 | 70 | 160 | 0.0 | 0.0 | 0.00 | 0.37 | 0.00 | 98 | 1015.8 |
| 20260902061659 | 70 | 160 | 0.0 | 0.0 | 0.00 | 0.37 | 0.00 | 98 | 1015.8 |
| 20260902061502 | 70 | 160 | 0.0 | 0.0 | 0.00 | 0.37 | 0.00 | 98 | 1015.8 |
| 20260902061359 | 70 | 160 | 0.0 | 0.0 | 0.00 | 0.37 | 0.00 | 98 | 1015.8 |
| 20260902061300 | 70 | 160 | 0.0 | 0.0 | 0.00 | 0.37 | 0.00 | 98 | 1015.7 |
| 20260902061158 | 70 | 160 | 0.0 | 0.0 | 0.00 | 0.37 | 0.00 | 98 | 1015.8 |
| 20260902061059 | 70 | 160 | 0.0 | 0.0 | 0.00 | 0.37 | 0.00 | 98 | 1015.8 |
| 20260902061003 | 70 | 160 | 0.0 | 0.0 | 0.00 | 0.37 | 0.00 | 98 | 1015.8 |
| 20260902060800 | 70 | 160 | 0.0 | 0.0 | 0.00 | 0.37 | 0.00 | 98 | 1015.8 |
| 20260902060701 | 70 | 160 | 0.0 | 0.0 | 0.00 | 0.37 | 0.00 | 98 | 1015.8 |
| 20260902060559 | 70 | 160 | 0.0 | 0.0 | 0.00 | 0.37 | 0.00 | 98 | 1015.8 |
| 20260902060500 | 70 | 160 | 0.0 | 0.0 | 0.00 | 0.37 | 0.00 | 98 | 1015.8 |
| 20260902060400 | 70 | 160 | 0.0 | 0.0 | 0.00 | 0.37 | 0.00 | 98 | 1015.8 |
| 20260902060301 | 70 | 160 | 0.0 | 0.0 | 0.00 | 0.37 | 0.00 | 98 | 1015.8 |
| 20260902060159 | 70 | 160 | 0.0 | 0.0 | 0.00 | 0.37 | 0.00 | 98 | 1015.8 |
| 20260902060100 | 70 | 160 | 0.0 | 0.0 | 0.00 | 0.37 | 0.00 | 98 | 1015.8 |
| 20260902055859 | 70 | 160 | 0.0 | 0.0 | 0.00 | 0.37 | 0.00 | 98 | 1015.8 |
| 20260902055759 | 70 | 160 | 0.0 | 0.0 | 0.00 | 0.37 | 0.00 | 98 | 1015.7 |
| 20260902055659 | 70 | 160 | 0.0 | 0.0 | 0.00 | 0.37 | 0.00 | 98 | 1015.8 |
| 20260902055500 | 70 | 160 | 0.0 | 0.0 | 0.00 | 0.37 | 0.00 | 98 | 1015.7 |
| 20260902055359 | 70 | 160 | 0.0 | 0.0 | 0.00 | 0.37 | 0.00 | 98 | 1015.8 |
| 20260902055159 | 70 | 160 | 0.0 | 0.0 | 0.00 | 0.37 | 0.00 | 98 | 1015.8 |
| 20260902055058 | 70 | 160 | 0.0 | 0.0 | 0.00 | 0.37 | 0.00 | 98 | 1015.8 |
| 20260902055004 | 70 | 160 | 0.0 | 0.0 | 0.00 | 0.37 | 0.00 | 98 | 1015.8 |
| 20260902054900 | 70 | 160 | 0.0 | 0.0 | 0.00 | 0.37 | 0.00 | 98 | 1015.8 |
| 20260902054759 | 70 | 160 | 0.0 | 0.0 | 0.00 | 0.37 | 0.00 | 98 | 1015.8 |
| 20260902054659 | 70 | 160 | 0.0 | 0.0 | 0.00 | 0.37 | 0.00 | 98 | 1015.8 |
| 20260902054600 | 70 | 160 | 0.0 | 0.0 | 0.00 | 0.37 | 0.00 | 98 | 1015.8 |
| 20260902054358 | 70 | 160 | 0.0 | 0.0 | 0.00 | 0.37 | 0.00 | 98 | 1015.9 |
| 20260902054259 | 70 | 160 | 0.0 | 0.0 | 0.00 | 0.37 | 0.00 | 98 | 1015.9 |
| 20260902054159 | 70 | 160 | 0.0 | 0.0 | 0.00 | 0.37 | 0.00 | 98 | 1015.8 |
| 20260902054100 | 70 | 160 | 0.0 | 0.0 | 0.00 | 0.37 | 0.00 | 98 | 1015.8 |
| 20260902054001 | 70 | 160 | 0.0 | 0.0 | 0.00 | 0.37 | 0.00 | 98 | 1015.8 |
| 20260902053858 | 70 | 160 | 0.0 | 0.0 | 0.00 | 0.37 | 0.00 | 98 | 1015.8 |
| 20260902053600 | 70 | 160 | 0.0 | 0.0 | 0.00 | 0.37 | 0.00 | 98 | 1015.8 |
| 20260902053501 | 70 | 160 | 0.0 | 0.0 | 0.00 | 0.37 | 0.00 | 98 | 1015.8 |
| 20260902053259 | 70 | 160 | 0.0 | 0.0 | 0.00 | 0.37 | 0.00 | 98 | 1015.9 |
| 20260902053158 | 70 | 160 | 0.0 | 0.0 | 0.00 | 0.37 | 0.00 | 98 | 1015.9 |
| 20260902053100 | 70 | 160 | 0.0 | 0.0 | 0.00 | 0.37 | 0.00 | 98 | 1015.9 |
| 20260902052859 | 70 | 160 | 0.0 | 0.0 | 0.00 | 0.37 | 0.00 | 98 | 1015.9 |
| 20260902052800 | 70 | 160 | 0.0 | 0.0 | 0.00 | 0.37 | 0.00 | 98 | 1015.9 |
| 20260902052700 | 70 | 160 | 0.0 | 0.0 | 0.00 | 0.37 | 0.00 | 98 | 1016.0 |
| 20260902052600 | 70 | 160 | 0.0 | 0.0 | 0.00 | 0.37 | 0.00 | 98 | 1016.0 |
| 20260902052503 | 70 | 160 | 0.0 | 0.0 | 0.00 | 0.37 | 0.00 | 98 | 1015.9 |
| 20260902052359 | 70 | 160 | 0.0 | 0.0 | 0.00 | 0.37 | 0.00 | 98 | 1015.9 |
| 20260902052300 | 70 | 160 | 0.0 | 0.0 | 0.00 | 0.37 | 0.00 | 98 | 1015.9 |
| 20260902052059 | 70 | 160 | 0.0 | 0.0 | 0.00 | 0.37 | 0.00 | 98 | 1015.9 |
| 20260902052003 | 70 | 160 | 0.0 | 0.0 | 0.00 | 0.37 | 0.00 | 98 | 1015.9 |
| 20260902051900 | 70 | 160 | 0.0 | 0.0 | 0.00 | 0.37 | 0.00 | 98 | 1015.9 |
| 20260902051801 | 70 | 160 | 0.0 | 0.0 | 0.00 | 0.37 | 0.00 | 98 | 1015.8 |
| 20260902051659 | 70 | 160 | 0.0 | 0.0 | 0.00 | 0.37 | 0.00 | 98 | 1015.8 |
| 20260902051503 | 70 | 160 | 0.0 | 0.0 | 0.00 | 0.37 | 0.00 | 97 | 1015.8 |
| 20260902051359 | 70 | 160 | 0.0 | 0.0 | 0.00 | 0.37 | 0.00 | 97 | 1015.8 |
| 20260902051300 | 70 | 160 | 0.0 | 0.0 | 0.00 | 0.37 | 0.00 | 97 | 1015.8 |
| 20260902051159 | 71 | 160 | 0.0 | 0.0 | 0.00 | 0.37 | 0.00 | 97 | 1015.8 |
| 20260902051059 | 71 | 160 | 0.0 | 0.0 | 0.00 | 0.37 | 0.00 | 97 | 1015.8 |
| 20260902051000 | 71 | 160 | 0.0 | 0.0 | 0.00 | 0.37 | 0.00 | 97 | 1015.8 |
| 20260902050900 | 71 | 160 | 0.0 | 0.0 | 0.00 | 0.37 | 0.00 | 97 | 1015.8 |
| 20260902050659 | 71 | 160 | 0.0 | 0.0 | 0.00 | 0.37 | 0.00 | 97 | 1015.8 |
| 20260902050559 | 71 | 160 | 0.0 | 0.0 | 0.00 | 0.37 | 0.00 | 97 | 1015.8 |
| 20260902050504 | 71 | 160 | 0.0 | 0.0 | 0.00 | 0.37 | 0.00 | 98 | 1015.8 |
| 20260902050359 | 71 | 160 | 0.0 | 0.0 | 0.00 | 0.37 | 0.00 | 98 | 1015.8 |
| 20260902050259 | 71 | 160 | 0.0 | 0.0 | 0.00 | 0.37 | 0.00 | 98 | 1015.8 |